                ,  0.195,  0.292,  0.389,  0.486,  0.583,  0.680,  0.777,  0.874,  0.971,  1.068,  1.165,  1.262,  1.359,  1.456,  1.553,  1.651,  1.748,  1.845,  1.942,  2.039,  2.136,  2.233,  2.330,  2.427,  2.524,  2.621,  2.718,  2.815,  2.912,  3.009,  3.106,  3.203,  3.300,  3.397,  3.494,  3.591,  3.688,  3.785,  3.882,  3.979,  4.076,  4.173,  4.270,  4.367,  4.464,  4.561,  4.658,  4.755,  4.852,  4.950,  5.047,  5.144,  5.241,  5.338,  5.435,  5.532,  5.629,  5.726,  5.823,  5.920,  6.017,  6.114,  6.211,  6.308,  6.405,  6.502,  6.599,  6.696,  6.793,  6.890,  6.987,  7.084,  7.181,  7.278,  7.375,  7.472,  7.569,  7.666,  7.763,  7.860,  7.957,  8.054,  8.151,  8.249,  8.346,  8.443,  8.540,  8.637,  8.734,  8.831,  8.928,  9.025,  9.122,  9.219,  9.316,  9.413,  9.510,  9.607
2009/10/31 00:00,    1.5,  999.0,    2.6,  999.0,    4.2,    4.0,    3.3,    1.9,  999.0,    0.5,  999.0,   -2.0,   -2.8,   -3.2,   -4.0,  999.0,   -4.4,  999.0,  999.0,  999.0,  999.0,  999.0,  999.0,  999.0,   -0.8,   -0.7,    0.1,    1.0,  999.0,  999.0,  999.0,  999.0,  999.0,  999.0,  999.0,  999.0,  999.0,  999.0,  999.0,  999.0,  999.0,  999.0,  999.0,  999.0,  999.0,  999.0,  999.0,  999.0,  999.0,   -1.2,   -1.7,  999.0,  999.0,  999.0,   -2.0,  999.0,   -3.6,  999.0,  999.0,  999.0,  999.0,  999.0,  999.0,  999.0,  999.0,  999.0,  999.0,  999.0,  999.0,  999.0,  999.0,  999.0,  999.0,  999.0,  999.0,  999.0,  999.0,  999.0,  999.0,  999.0,  999.0,  999.0,  999.0,  999.0,  999.0,  999.0,  999.0,  999.0,  999.0,  999.0,  999.0,  999.0,  999.0,  999.0,  999.0,  999.0,  999.0,  999.0
2009/10/31 00:10,    0.0,  999.0,  999.0,  999.0,  999.0,    4.0,    3.3,    2.0,    1.6,    1.0,    0.2,   -1.2,   -2.3,   -2.6,   -4.4,   -4.4,   -2.4,   -2.0,   -2.5,   -2.7,   -2.0,   -1.1,  999.0,   -0.8,   -1.0,   -0.7,   -0.1,    1.0,  999.0,  999.0,  999.0,  999.0,  999.0,  999.0,  999.0,  999.0,  999.0,  999.0,  999.0,  999.0,  999.0,  999.0,  999.0,  999.0,  999.0,    1.7,  999.0,  999.0,  999.0,  999.0,   -0.7,   -1.3,   -1.4,   -1.8,   -2.2,  999.0,   -4.1,  999.0,  999.0,  999.0,  999.0,  999.0,  999.0,  999.0,  999.0,  999.0,  999.0,  999.0,  999.0,  999.0,  999.0,  999.0,  999.0,  999.0,  999.0,  999.0,  999.0,  999.0,  999.0,  999.0,  999.0,  999.0,  999.0,  999.0,  999.0,  999.0,  999.0,  999.0,  999.0,  999.0,  999.0,  999.0,  999.0,  999.0,  999.0,  999.0,  999.0,  999.0
2009/10/31 00:20,  999.0,  999.0,  999.0,    5.1,    4.2,    4.0,    3.5,    2.5,    1.8,    1.3,    0.8,   -0.5,  999.0,  999.0,  999.0,  999.0,   -3.4,  999.0,   -2.7,  999.0,   -2.3,  999.0,  999.0,   -0.9,   -1.4,   -1.4,   -0.4,    0.2,   -0.1,  999.0,  999.0,  999.0,  999.0,  999.0,  999.0,  999.0,  999.0,  999.0,  999.0,  999.0,  999.0,  999.0,  999.0,  999.0,  999.0,  999.0,  999.0,  999.0,  999.0,   -0.5,   -0.8,   -1.7,   -1.6,  999.0,   -1.7,   -1.8,  999.0,  999.0,  999.0,  999.0,  999.0,  999.0,  999.0,  999.0,  999.0,  999.0,  999.0,  999.0,  999.0,  999.0,  999.0,  999.0,  999.0,  999.0,  999.0,  999.0,  999.0,  999.0,  999.0,  999.0,  999.0,  999.0,  999.0,  999.0,  999.0,  999.0,  999.0,  999.0,  999.0,  999.0,  999.0,  999.0,  999.0,  999.0,  999.0,  999.0,  999.0,  999.0
2009/10/31 00:30,  999.0,  999.0,  999.0,    5.2,    4.8,    3.8,    3.6,    2.8,    2.1,    1.3,  999.0,  999.0,   -0.9,  999.0,  999.0,   -3.6,   -2.7,   -2.3,   -2.4,   -2.6,   -2.5,   -1.8,   -0.9,   -1.5,   -1.7,   -1.3,   -0.2,   -0.5,  999.0,    0.9,    1.4,  999.0,  999.0,  999.0,  999.0,  999.0,  999.0,  999.0,  999.0,  999.0,  999.0,  999.0,  999.0,  999.0,  999.0,    1.2,    0.9,  999.0,  999.0,   -0.8,   -1.1,   -1.1,   -1.6,  999.0,  999.0,  999.0,  999.0,  999.0,  999.0,  999.0,  999.0,  999.0,  999.0,  999.0,  999.0,  999.0,  999.0,  999.0,  999.0,  999.0,  999.0,  999.0,  999.0,  999.0,  999.0,  999.0,  999.0,  999.0,  999.0,  999.0,  999.0,  999.0,  999.0,  999.0,  999.0,  999.0,  999.0,  999.0,  999.0,  999.0,  999.0,  999.0,  999.0,  999.0,  999.0,  999.0,  999.0,  999.0
2009/10/31 00:40,  999.0,  999.0,  999.0,    5.3,    5.0,    4.1,    3.6,    3.2,    1.7,    1.4,  999.0,   -0.2,   -0.3,   -2.2,   -3.1,   -2.9,   -2.8,   -2.6,   -2.5,   -2.9,   -2.5,   -1.9,  999.0,   -1.3,   -1.7,   -1.6,   -1.3,  999.0,  999.0,    1.0,    1.2,  999.0,  999.0,  999.0,  999.0,  999.0,  999.0,  999.0,  999.0,  999.0,  999.0,  999.0,  999.0,  999.0,  999.0,  999.0,  999.0,  999.0,  999.0,   -1.4,   -1.5,   -1.9,  999.0,   -2.0,   -2.6,  999.0,  999.0,  999.0,  999.0,  999.0,  999.0,  999.0,  999.0,  999.0,  999.0,  999.0,  999.0,  999.0,  999.0,  999.0,  999.0,  999.0,  999.0,  999.0,  999.0,  999.0,  999.0,  999.0,  999.0,  999.0,  999.0,  999.0,  999.0,  999.0,  999.0,  999.0,  999.0,  999.0,  999.0,  999.0,  999.0,  999.0,  999.0,  999.0,  999.0,  999.0,  999.0,  999.0
2009/10/31 00:50,  999.0,  999.0,    5.6,    5.5,    4.9,    4.2,    4.2,    2.9,    1.8,    1.7,    1.0,    0.1,   -0.9,   -1.8,   -2.8,   -2.1,   -2.4,   -2.1,   -2.4,   -2.7,   -1.8,   -1.5,   -0.7,   -1.2,   -1.3,   -1.7,   -1.9,   -1.3,    0.3,  999.0,  999.0,    1.5,    2.1,  999.0,  999.0,  999.0,  999.0,  999.0,  999.0,  999.0,  999.0,  999.0,  999.0,  999.0,  999.0,  999.0,  999.0,  999.0,  999.0,  999.0,   -1.7,   -1.7,   -2.0,   -2.5,   -2.7,  999.0,  999.0,   -4.0,   -3.9,  999.0,  999.0,  999.0,  999.0,  999.0,  999.0,  999.0,  999.0,  999.0,  999.0,  999.0,  999.0,  999.0,  999.0,  999.0,  999.0,  999.0,  999.0,  999.0,  999.0,  999.0,  999.0,  999.0,  999.0,  999.0,  999.0,  999.0,  999.0,  999.0,  999.0,  999.0,  999.0,  999.0,  999.0,  999.0,  999.0,  999.0,  999.0,  999.0
2009/10/31 01:00,  999.0,  999.0,    4.5,  999.0,  999.0,    3.6,    3.9,    3.3,    2.5,    1.6,    1.2,    0.4,   -0.3,   -1.2,   -2.1,   -2.5,   -2.5,   -2.4,   -2.3,   -2.2,   -2.2,  999.0,  999.0,   -0.8,   -1.4,   -1.8,   -1.6,   -1.3,   -0.4,  999.0,  999.0,    1.4,    2.3,  999.0,  999.0,  999.0,  999.0,    2.4,    2.6,  999.0,  999.0,  999.0,  999.0,  999.0,  999.0,  999.0,  999.0,  999.0,  999.0,  999.0,   -1.0,   -1.6,   -2.0,  999.0,   -2.8,  999.0,  999.0,   -3.7,   -3.7,  999.0,  999.0,  999.0,  999.0,  999.0,  999.0,  999.0,  999.0,  999.0,  999.0,  999.0,  999.0,  999.0,  999.0,  999.0,  999.0,  999.0,  999.0,  999.0,  999.0,  999.0,  999.0,  999.0,  999.0,  999.0,  999.0,  999.0,  999.0,  999.0,  999.0,  999.0,  999.0,  999.0,  999.0,  999.0,  999.0,  999.0,  999.0,  999.0
2009/10/31 01:10,  999.0,  999.0,  999.0,    3.9,    4.8,    4.1,    3.7,    2.8,    2.3,  999.0,    0.8,    0.0,   -0.5,   -1.2,   -2.2,   -2.4,   -2.5,   -2.3,   -2.0,   -2.0,   -2.1,   -1.2,   -1.0,   -1.1,   -1.7,  999.0,   -1.8,   -1.1,  999.0,    0.4,    1.3,  999.0,  999.0,  999.0,  999.0,  999.0,  999.0,  999.0,  999.0,  999.0,  999.0,  999.0,  999.0,  999.0,  999.0,  999.0,  999.0,    0.5,  999.0,  999.0,   -1.6,   -1.9,   -2.5,  999.0,  999.0,   -3.9,   -4.3,   -4.1,   -3.9,  999.0,  999.0,  999.0,  999.0,  999.0,  999.0,  999.0,  999.0,  999.0,  999.0,  999.0,  999.0,  999.0,  999.0,  999.0,  999.0,  999.0,  999.0,  999.0,  999.0,  999.0,  999.0,  999.0,  999.0,  999.0,  999.0,  999.0,  999.0,  999.0,  999.0,  999.0,  999.0,  999.0,  999.0,  999.0,  999.0,  999.0,  999.0,  999.0
2009/10/31 01:20,  999.0,  999.0,  999.0,  999.0,    4.4,    4.5,  999.0,    3.2,    2.2,    1.7,    0.6,    0.4,   -0.7,   -1.2,   -1.5,   -2.0,   -2.6,   -2.4,   -2.2,   -2.1,   -1.4,   -1.1,   -1.2,   -1.2,   -1.8,   -2.0,   -1.2,  999.0,    0.1,  999.0,  999.0,    2.1,  999.0,  999.0,  999.0,  999.0,  999.0,  999.0,    2.3,  999.0,  999.0,  999.0,  999.0,  999.0,  999.0,  999.0,    0.7,   -0.4,  999.0,  999.0,  999.0,   -2.5,   -2.7,  999.0,  999.0,  999.0,  999.0,   -3.6,  999.0,  999.0,  999.0,  999.0,  999.0,  999.0,  999.0,  999.0,  999.0,  999.0,  999.0,  999.0,  999.0,  999.0,  999.0,  999.0,  999.0,  999.0,  999.0,  999.0,  999.0,  999.0,  999.0,  999.0,  999.0,  999.0,  999.0,  999.0,  999.0,  999.0,  999.0,  999.0,  999.0,  999.0,  999.0,  999.0,  999.0,  999.0,  999.0,  999.0
2009/10/31 01:30,  999.0,  999.0,    6.2,    5.3,  999.0,    4.5,  999.0,    3.7,    2.1,    1.7,    1.2,    0.6,   -0.9,   -1.9,   -2.0,   -2.1,   -2.5,   -2.8,   -2.1,  999.0,   -1.7,   -1.5,   -1.8,   -2.3,   -2.4,   -2.6,   -1.4,   -0.4,    0.4,  999.0,  999.0,  999.0,  999.0,  999.0,  999.0,  999.0,  999.0,  999.0,    2.4,  999.0,  999.0,  999.0,  999.0,  999.0,    0.8,  999.0,    0.8,  999.0,  999.0,   -1.1,   -1.9,  999.0,   -3.0,  999.0,  999.0,  999.0,  999.0,  999.0,  999.0,  999.0,  999.0,  999.0,  999.0,  999.0,  999.0,  999.0,  999.0,  999.0,  999.0,  999.0,  999.0,  999.0,  999.0,  999.0,  999.0,  999.0,  999.0,  999.0,  999.0,  999.0,  999.0,  999.0,  999.0,  999.0,  999.0,  999.0,  999.0,  999.0,  999.0,  999.0,  999.0,  999.0,  999.0,  999.0,  999.0,  999.0,  999.0,  999.0
2009/10/31 01:40,  999.0,  999.0,  999.0,    4.8,    5.1,    4.7,    4.1,    4.0,    2.4,    1.3,    0.9,    0.2,   -0.8,   -1.6,   -1.8,   -2.1,   -2.4,   -2.7,   -2.6,   -2.5,   -1.7,   -1.4,   -1.6,   -1.9,   -2.4,   -2.7,   -1.9,  999.0,  999.0,  999.0,  999.0,  999.0,  999.0,  999.0,  999.0,  999.0,  999.0,  999.0,  999.0,  999.0,    2.1,  999.0,  999.0,  999.0,  999.0,    0.8,    0.8,  999.0,  999.0,   -1.9,   -2.1,  999.0,  999.0,  999.0,  999.0,  999.0,  999.0,  999.0,  999.0,  999.0,  999.0,  999.0,  999.0,  999.0,  999.0,  999.0,  999.0,  999.0,  999.0,  999.0,  999.0,  999.0,  999.0,  999.0,  999.0,  999.0,  999.0,  999.0,  999.0,  999.0,  999.0,  999.0,  999.0,  999.0,  999.0,  999.0,  999.0,  999.0,  999.0,  999.0,  999.0,  999.0,  999.0,  999.0,  999.0,  999.0,  999.0,  999.0
2009/10/31 01:50,  999.0,  999.0,  999.0,    4.6,    4.6,    4.4,    3.8,  999.0,    2.2,    1.0,    0.7,    0.1,   -1.1,   -2.1,   -2.5,   -2.1,   -2.4,   -2.2,   -2.0,   -2.0,   -1.1,   -1.2,   -1.8,   -2.1,   -2.5,   -2.5,   -1.2,   -0.5,  999.0,  999.0,  999.0,    2.1,    3.4,  999.0,  999.0,  999.0,  999.0,  999.0,  999.0,  999.0,    2.4,  999.0,  999.0,  999.0,   -0.4,  999.0,  999.0,  999.0,  999.0,  999.0,   -1.5,  999.0,  999.0,  999.0,  999.0,  999.0,  999.0,  999.0,  999.0,  999.0,  999.0,  999.0,  999.0,  999.0,  999.0,  999.0,  999.0,  999.0,  999.0,  999.0,  999.0,  999.0,  999.0,  999.0,  999.0,  999.0,  999.0,  999.0,  999.0,  999.0,  999.0,  999.0,  999.0,  999.0,  999.0,  999.0,  999.0,  999.0,  999.0,  999.0,  999.0,  999.0,  999.0,  999.0,  999.0,  999.0,  999.0,  999.0
2009/10/31 02:00,  999.0,  999.0,  999.0,    4.7,    4.7,    4.3,    3.9,    2.1,    1.0,    0.5,    0.1,  999.0,   -2.1,   -2.5,   -2.5,   -2.3,   -2.5,   -2.2,   -2.0,   -1.7,   -1.2,   -1.3,   -1.8,   -2.5,   -3.2,   -2.8,   -2.2,   -0.2,    0.3,    1.2,  999.0,    2.3,    2.7,  999.0,    4.2,  999.0,  999.0,  999.0,  999.0,  999.0,    2.9,  999.0,  999.0,  999.0,   -0.0,    0.9,  999.0,  999.0,  999.0,  999.0,  999.0,  999.0,  999.0,  999.0,  999.0,  999.0,  999.0,  999.0,  999.0,  999.0,  999.0,  999.0,  999.0,  999.0,  999.0,  999.0,  999.0,  999.0,  999.0,  999.0,  999.0,  999.0,  999.0,  999.0,  999.0,  999.0,  999.0,  999.0,  999.0,  999.0,  999.0,  999.0,  999.0,  999.0,  999.0,  999.0,  999.0,  999.0,  999.0,  999.0,  999.0,  999.0,  999.0,  999.0,  999.0,  999.0,  999.0,  999.0
2009/10/31 02:10,  999.0,  999.0,  999.0,    4.5,    4.6,    3.9,    3.0,  999.0,    1.2,    0.6,    0.2,   -1.0,   -1.7,   -2.5,   -2.3,   -2.6,   -2.3,   -2.0,   -1.6,   -1.1,   -1.0,   -1.2,   -2.0,  999.0,   -3.0,  999.0,   -1.7,   -0.6,    0.8,  999.0,  999.0,  999.0,  999.0,  999.0,  999.0,  999.0,  999.0,  999.0,  999.0,  999.0,    2.3,    2.4,  999.0,  999.0,  999.0,    0.7,  999.0,  999.0,  999.0,  999.0,  999.0,  999.0,  999.0,  999.0,  999.0,  999.0,  999.0,  999.0,  999.0,  999.0,  999.0,  999.0,  999.0,  999.0,  999.0,  999.0,  999.0,  999.0,  999.0,  999.0,  999.0,  999.0,  999.0,  999.0,  999.0,  999.0,  999.0,  999.0,  999.0,  999.0,  999.0,  999.0,  999.0,  999.0,  999.0,  999.0,  999.0,  999.0,  999.0,  999.0,  999.0,  999.0,  999.0,  999.0,  999.0,  999.0,  999.0,  999.0
2009/10/31 02:20,  999.0,  999.0,    2.3,    4.2,  999.0,  999.0,    2.8,    2.2,    1.5,    1.0,    0.0,   -0.5,   -0.9,   -1.8,   -2.0,   -2.2,   -2.1,   -1.8,  999.0,   -1.2,   -0.9,   -1.0,   -1.9,   -2.7,  999.0,   -2.5,   -1.3,   -0.5,    0.1,  999.0,    1.5,  999.0,  999.0,  999.0,  999.0,  999.0,  999.0,  999.0,  999.0,  999.0,  999.0,    2.2,  999.0,  999.0,   -0.1,    0.1,    0.8,  999.0,  999.0,  999.0,  999.0,  999.0,  999.0,  999.0,  999.0,  999.0,  999.0,  999.0,  999.0,  999.0,  999.0,  999.0,  999.0,  999.0,  999.0,  999.0,  999.0,  999.0,  999.0,  999.0,  999.0,  999.0,  999.0,  999.0,  999.0,  999.0,  999.0,  999.0,  999.0,  999.0,  999.0,  999.0,  999.0,  999.0,  999.0,  999.0,  999.0,  999.0,  999.0,  999.0,  999.0,  999.0,  999.0,  999.0,  999.0,  999.0,  999.0,  999.0
2009/10/31 02:30,  999.0,  999.0,  999.0,  999.0,  999.0,    4.7,    4.0,    3.2,  999.0,    1.1,    0.9,  999.0,  999.0,  999.0,   -2.1,   -2.1,   -1.7,   -1.7,   -1.6,   -1.5,   -0.8,   -0.9,   -1.7,   -2.2,   -2.7,   -2.1,   -0.9,   -0.2,    1.6,    1.6,    1.7,    2.0,  999.0,  999.0,  999.0,  999.0,  999.0,  999.0,  999.0,  999.0,  999.0,  999.0,  999.0,  999.0,  999.0,  999.0,    0.1,  999.0,    0.1,  999.0,  999.0,  999.0,  999.0,  999.0,  999.0,   -2.2,   -3.2,  999.0,  999.0,  999.0,  999.0,  999.0,  999.0,  999.0,  999.0,  999.0,  999.0,  999.0,  999.0,  999.0,  999.0,  999.0,  999.0,  999.0,  999.0,  999.0,  999.0,  999.0,  999.0,  999.0,  999.0,  999.0,  999.0,  999.0,  999.0,  999.0,  999.0,  999.0,  999.0,  999.0,  999.0,  999.0,  999.0,  999.0,  999.0,  999.0,    0.6,   -0.4
2009/10/31 02:40,  999.0,  999.0,  999.0,  999.0,  999.0,    4.4,    4.0,    3.3,    2.1,    1.0,    1.2,  999.0,  999.0,  999.0,  999.0,   -1.6,   -1.7,   -1.5,   -1.2,   -1.2,   -0.6,   -0.8,   -1.6,   -2.1,   -2.3,   -1.4,  999.0,    0.3,    1.2,    2.1,  999.0,    2.3,  999.0,  999.0,  999.0,  999.0,  999.0,  999.0,  999.0,  999.0,  999.0,  999.0,  999.0,  999.0,  999.0,  999.0,  999.0,  999.0,  999.0,  999.0,  999.0,  999.0,  999.0,  999.0,  999.0,  999.0,   -2.7,  999.0,  999.0,  999.0,  999.0,  999.0,  999.0,  999.0,  999.0,  999.0,  999.0,  999.0,  999.0,  999.0,  999.0,  999.0,  999.0,  999.0,  999.0,  999.0,  999.0,  999.0,  999.0,  999.0,  999.0,  999.0,  999.0,  999.0,  999.0,  999.0,  999.0,  999.0,  999.0,  999.0,  999.0,  999.0,  999.0,  999.0,    0.7,    0.8,    0.8,    0.6
2009/10/31 02:50,  999.0,  999.0,    4.1,    3.9,    4.0,    4.1,  999.0,    2.6,    1.4,    0.8,  999.0,  999.0,   -1.5,   -1.6,   -1.9,   -1.7,  999.0,   -1.4,   -1.4,   -0.3,   -0.5,  999.0,   -1.3,   -2.0,   -2.2,   -1.3,   -0.3,    0.3,    1.3,    2.6,    2.7,    3.0,  999.0,  999.0,  999.0,  999.0,  999.0,  999.0,    3.7,    4.3,  999.0,  999.0,  999.0,  999.0,  999.0,  999.0,  999.0,  999.0,  999.0,  999.0,  999.0,  999.0,  999.0,  999.0,  999.0,  999.0,  999.0,  999.0,  999.0,  999.0,  999.0,  999.0,  999.0,  999.0,  999.0,  999.0,  999.0,  999.0,  999.0,  999.0,  999.0,  999.0,  999.0,  999.0,  999.0,  999.0,  999.0,  999.0,  999.0,  999.0,  999.0,  999.0,  999.0,  999.0,  999.0,  999.0,  999.0,  999.0,  999.0,  999.0,  999.0,  999.0,  999.0,    0.9,    0.9,    1.2,    1.2,    1.0
2009/10/31 03:00,  999.0,  999.0,  999.0,    4.5,    4.2,    4.1,  999.0,    2.7,    1.8,    0.8,   -0.0,   -1.2,   -1.8,   -2.0,   -2.2,   -1.6,   -1.6,   -1.3,   -1.1,   -0.9,    0.3,  999.0,   -0.9,  999.0,  999.0,  999.0,  999.0,    0.4,    1.2,    2.5,  999.0,    3.3,  999.0,  999.0,  999.0,  999.0,  999.0,  999.0,    4.0,  999.0,  999.0,  999.0,  999.0,  999.0,  999.0,  999.0,   -0.5,  999.0,  999.0,    0.1,   -0.6,   -0.8,  999.0,  999.0,   -2.6,   -3.2,   -3.6,  999.0,  999.0,  999.0,  999.0,  999.0,  999.0,  999.0,  999.0,  999.0,  999.0,  999.0,  999.0,  999.0,  999.0,  999.0,  999.0,  999.0,  999.0,  999.0,  999.0,  999.0,  999.0,  999.0,  999.0,  999.0,  999.0,  999.0,  999.0,  999.0,  999.0,  999.0,  999.0,  999.0,  999.0,    0.3,    0.9,    1.1,    1.3,    1.4,    1.4,    1.1
2009/10/31 03:10,  999.0,  999.0,  999.0,    4.4,    4.5,    4.3,    3.5,    3.0,    1.5,  999.0,  999.0,  999.0,  999.0,  999.0,  999.0,  999.0,   -1.7,   -1.0,   -1.1,   -0.8,  999.0,   -1.0,   -1.3,  999.0,  999.0,  999.0,  999.0,    0.4,    1.6,    2.2,    2.9,  999.0,  999.0,  999.0,  999.0,  999.0,  999.0,    3.3,    3.4,  999.0,  999.0,  999.0,  999.0,  999.0,  999.0,  999.0,   -0.8,   -0.8,   -0.3,   -0.6,  999.0,  999.0,  999.0,   -1.7,   -2.6,   -3.5,   -3.9,  999.0,  999.0,  999.0,  999.0,  999.0,  999.0,  999.0,  999.0,  999.0,  999.0,  999.0,  999.0,  999.0,  999.0,  999.0,  999.0,  999.0,  999.0,  999.0,  999.0,  999.0,  999.0,  999.0,  999.0,  999.0,  999.0,  999.0,  999.0,  999.0,  999.0,  999.0,  999.0,  999.0,    0.5,    0.3,    0.7,    1.2,    1.2,    1.0,    0.6,    0.5
2009/10/31 03:20,  999.0,  999.0,  999.0,    4.8,    4.3,    4.1,    3.6,    3.0,    1.5,    0.5,  999.0,  999.0,   -0.4,  999.0,  999.0,   -1.9,   -1.4,   -1.2,   -1.2,   -1.1,  999.0,  999.0,   -1.7,   -1.8,  999.0,  999.0,    0.2,    0.6,    1.5,    2.4,    2.2,    2.2,  999.0,  999.0,  999.0,  999.0,  999.0,    3.5,  999.0,  999.0,  999.0,  999.0,  999.0,  999.0,  999.0,  999.0,   -0.8,   -0.8,   -0.7,   -0.1,   -0.4,   -0.7,   -1.2,   -2.0,   -2.6,   -3.6,   -4.0,  999.0,  999.0,  999.0,  999.0,  999.0,  999.0,  999.0,  999.0,  999.0,  999.0,  999.0,  999.0,  999.0,  999.0,  999.0,  999.0,  999.0,  999.0,  999.0,  999.0,  999.0,  999.0,  999.0,  999.0,  999.0,  999.0,  999.0,  999.0,  999.0,  999.0,  999.0,  999.0,  999.0,  999.0,  999.0,  999.0,  999.0,  999.0,  999.0,  999.0,  999.0
2009/10/31 03:30,  999.0,  999.0,    4.5,    4.4,    4.2,    3.7,    3.2,    2.5,    1.0,    0.7,   -1.0,   -1.2,   -1.7,   -1.9,   -1.8,   -1.9,   -1.8,   -1.5,   -1.4,   -1.0,   -0.8,  999.0,   -0.9,   -1.5,   -1.6,   -0.7,    0.0,    0.6,    1.3,    2.6,  999.0,    2.0,  999.0,  999.0,    3.1,  999.0,    3.1,    3.7,  999.0,  999.0,  999.0,  999.0,  999.0,  999.0,  999.0,   -0.5,   -0.6,   -0.9,   -0.4,    0.3,   -0.2,   -0.8,   -1.3,   -2.1,   -3.1,   -3.9,  999.0,  999.0,  999.0,  999.0,  999.0,  999.0,  999.0,  999.0,  999.0,  999.0,  999.0,  999.0,  999.0,  999.0,  999.0,  999.0,  999.0,  999.0,  999.0,  999.0,  999.0,  999.0,  999.0,  999.0,  999.0,  999.0,  999.0,  999.0,  999.0,  999.0,  999.0,  999.0,  999.0,  999.0,  999.0,  999.0,  999.0,  999.0,  999.0,  999.0,  999.0,  999.0
2009/10/31 03:40,  999.0,  999.0,    4.9,    4.5,    4.1,    3.7,    2.7,    2.1,  999.0,  999.0,   -1.1,   -2.4,  999.0,  999.0,  999.0,   -1.4,   -1.3,   -1.3,   -0.6,   -0.2,   -0.0,   -0.6,   -0.9,   -1.1,   -1.3,   -0.1,    0.9,    1.3,    1.9,    2.2,    2.9,    2.6,    2.8,  999.0,    3.0,    3.8,  999.0,    3.9,  999.0,  999.0,    3.8,  999.0,  999.0,  999.0,  999.0,  999.0,  999.0,   -0.6,  999.0,  999.0,   -0.6,   -1.7,  999.0,  999.0,   -3.5,   -3.9,   -4.4,   -4.3,  999.0,  999.0,  999.0,  999.0,  999.0,  999.0,  999.0,  999.0,  999.0,  999.0,  999.0,  999.0,  999.0,  999.0,  999.0,  999.0,  999.0,  999.0,  999.0,  999.0,  999.0,  999.0,  999.0,  999.0,  999.0,  999.0,  999.0,  999.0,  999.0,  999.0,  999.0,  999.0,  999.0,  999.0,  999.0,  999.0,  999.0,  999.0,  999.0,  999.0
2009/10/31 03:50,  999.0,  999.0,    4.6,    4.4,    4.5,    4.2,    3.5,  999.0,  999.0,  999.0,  999.0,  999.0,  999.0,   -2.4,   -2.6,   -1.6,   -1.2,   -1.4,   -1.1,   -0.7,  999.0,  999.0,   -0.6,   -0.7,   -0.6,    0.3,    1.1,    1.8,    1.8,    1.6,    2.8,    2.6,    2.8,  999.0,    2.5,    3.2,    3.3,    3.5,    4.2,  999.0,    2.8,  999.0,  999.0,  999.0,  999.0,  999.0,  999.0,   -0.6,  999.0,  999.0,   -1.2,   -2.4,   -2.8,   -2.7,   -3.5,   -3.9,   -4.7,   -4.5,  999.0,  999.0,  999.0,  999.0,  999.0,  999.0,  999.0,  999.0,  999.0,  999.0,  999.0,  999.0,  999.0,  999.0,  999.0,  999.0,  999.0,  999.0,  999.0,  999.0,  999.0,  999.0,  999.0,  999.0,  999.0,  999.0,  999.0,  999.0,  999.0,  999.0,  999.0,  999.0,  999.0,  999.0,  999.0,  999.0,  999.0,  999.0,  999.0,  999.0
2009/10/31 04:00,  999.0,  999.0,  999.0,    4.8,    4.7,    4.2,  999.0,  999.0,  999.0,  999.0,  999.0,  999.0,  999.0,  999.0,   -2.0,  999.0,   -1.4,   -1.6,   -1.3,   -1.2,  999.0,  999.0,   -0.9,   -0.8,  999.0,  999.0,    1.5,    2.1,  999.0,  999.0,  999.0,    2.4,    2.1,  999.0,    2.0,    2.9,    3.1,  999.0,  999.0,  999.0,    3.4,    2.4,  999.0,  999.0,  999.0,  999.0,  999.0,  999.0,  999.0,   -1.1,   -2.0,   -2.7,   -2.3,   -3.0,   -3.6,   -4.0,   -4.8,   -4.4,  999.0,  999.0,  999.0,  999.0,  999.0,  999.0,  999.0,  999.0,  999.0,  999.0,  999.0,  999.0,  999.0,  999.0,  999.0,  999.0,  999.0,  999.0,  999.0,  999.0,  999.0,  999.0,  999.0,  999.0,  999.0,  999.0,  999.0,  999.0,  999.0,  999.0,  999.0,  999.0,  999.0,  999.0,  999.0,  999.0,  999.0,  999.0,  999.0,  999.0
2009/10/31 04:10,  999.0,  999.0,  999.0,  999.0,    4.4,    3.3,  999.0,  999.0,    2.4,  999.0,  999.0,  999.0,   -1.9,  999.0,   -1.4,   -2.7,   -2.1,   -2.2,   -1.9,   -1.5,   -1.3,   -0.6,   -0.7,   -0.6,   -0.5,  999.0,    0.9,    1.9,    2.0,    1.7,  999.0,  999.0,    2.5,    2.5,    2.7,    3.4,  999.0,  999.0,  999.0,  999.0,  999.0,  999.0,  999.0,  999.0,  999.0,  999.0,  999.0,  999.0,  999.0,   -1.1,   -1.9,   -2.9,   -3.1,   -3.3,   -3.9,   -4.2,   -5.0,   -5.0,   -4.8,  999.0,  999.0,  999.0,  999.0,  999.0,  999.0,  999.0,  999.0,  999.0,  999.0,  999.0,  999.0,  999.0,  999.0,  999.0,  999.0,  999.0,  999.0,  999.0,  999.0,  999.0,  999.0,  999.0,  999.0,  999.0,  999.0,  999.0,  999.0,  999.0,  999.0,  999.0,  999.0,  999.0,  999.0,  999.0,  999.0,  999.0,  999.0,  999.0
2009/10/31 04:20,    0.2,    0.2,    1.3,  999.0,  999.0,  999.0,  999.0,  999.0,  999.0,  999.0,  999.0,  999.0,   -1.6,   -2.0,   -2.5,   -2.9,   -2.5,   -2.3,   -2.0,   -1.9,   -1.6,   -1.2,   -0.6,   -0.5,   -0.2,   -0.1,    0.2,    1.6,    2.2,  999.0,  999.0,  999.0,  999.0,  999.0,  999.0,  999.0,  999.0,  999.0,  999.0,  999.0,  999.0,  999.0,  999.0,  999.0,  999.0,  999.0,  999.0,  999.0,  999.0,   -1.0,   -1.9,   -2.9,   -3.2,   -3.8,   -4.3,   -4.6,   -4.8,   -4.8,  999.0,  999.0,  999.0,  999.0,  999.0,  999.0,  999.0,  999.0,  999.0,  999.0,  999.0,  999.0,  999.0,  999.0,  999.0,  999.0,  999.0,  999.0,  999.0,  999.0,  999.0,  999.0,  999.0,  999.0,  999.0,  999.0,  999.0,  999.0,  999.0,  999.0,  999.0,  999.0,  999.0,  999.0,  999.0,  999.0,  999.0,  999.0,  999.0,  999.0
2009/10/31 04:30,    0.2,  999.0,  999.0,  999.0,  999.0,  999.0,  999.0,  999.0,  999.0,  999.0,  999.0,  999.0,  999.0,  999.0,   -2.4,   -2.9,   -2.6,   -2.3,   -2.1,   -2.1,   -2.0,   -1.6,   -0.9,   -0.6,   -0.4,   -0.2,    0.4,    1.1,    2.5,  999.0,    2.4,    1.8,  999.0,  999.0,  999.0,  999.0,  999.0,  999.0,  999.0,  999.0,  999.0,    2.3,  999.0,  999.0,  999.0,  999.0,  999.0,  999.0,  999.0,  999.0,   -1.8,   -2.7,   -3.2,   -3.8,   -4.6,   -4.8,   -4.4,   -4.6,  999.0,  999.0,  999.0,  999.0,  999.0,  999.0,  999.0,  999.0,  999.0,  999.0,  999.0,  999.0,  999.0,  999.0,  999.0,  999.0,  999.0,  999.0,  999.0,  999.0,  999.0,  999.0,  999.0,  999.0,  999.0,  999.0,  999.0,  999.0,  999.0,  999.0,  999.0,  999.0,  999.0,  999.0,  999.0,  999.0,  999.0,  999.0,  999.0,  999.0
2009/10/31 04:40,  999.0,  999.0,  999.0,  999.0,  999.0,  999.0,  999.0,  999.0,  999.0,  999.0,  999.0,  999.0,  999.0,  999.0,   -2.0,   -2.4,   -1.5,   -2.1,   -1.9,   -2.1,   -2.0,   -1.7,   -1.1,   -0.6,   -0.1,   -0.3,    0.0,    0.9,    1.6,    2.7,  999.0,    2.1,    2.3,  999.0,  999.0,  999.0,  999.0,  999.0,  999.0,  999.0,    2.8,    2.5,  999.0,  999.0,  999.0,  999.0,  999.0,   -1.8,   -2.2,  999.0,   -1.6,   -3.0,   -3.8,   -4.0,   -4.8,   -4.9,   -4.9,   -4.5,   -3.7,  999.0,  999.0,  999.0,  999.0,  999.0,  999.0,  999.0,  999.0,  999.0,  999.0,  999.0,  999.0,  999.0,  999.0,  999.0,  999.0,  999.0,  999.0,  999.0,  999.0,  999.0,  999.0,  999.0,  999.0,  999.0,  999.0,  999.0,  999.0,  999.0,  999.0,  999.0,  999.0,  999.0,  999.0,  999.0,  999.0,  999.0,  999.0,  999.0
2009/10/31 04:50,  999.0,  999.0,  999.0,  999.0,  999.0,  999.0,  999.0,  999.0,  999.0,  999.0,  999.0,  999.0,  999.0,  999.0,  999.0,   -1.4,   -2.5,  999.0,   -1.9,   -2.0,   -2.1,   -1.8,   -1.3,   -0.7,   -0.5,   -0.3,    0.1,    0.7,    1.5,    2.8,    2.7,    2.1,    1.8,  999.0,  999.0,  999.0,  999.0,  999.0,  999.0,  999.0,  999.0,  999.0,  999.0,  999.0,  999.0,  999.0,   -0.2,   -1.3,   -1.3,   -1.1,   -1.7,   -3.1,   -3.7,   -3.7,   -4.3,   -4.0,   -3.9,   -3.9,  999.0,  999.0,  999.0,  999.0,  999.0,  999.0,  999.0,  999.0,  999.0,  999.0,  999.0,  999.0,  999.0,  999.0,  999.0,  999.0,  999.0,  999.0,  999.0,  999.0,  999.0,  999.0,  999.0,  999.0,  999.0,  999.0,  999.0,  999.0,  999.0,  999.0,  999.0,  999.0,  999.0,  999.0,  999.0,  999.0,  999.0,  999.0,  999.0,  999.0
2009/10/31 05:00,  999.0,  999.0,  999.0,  999.0,  999.0,  999.0,  999.0,  999.0,  999.0,  999.0,  999.0,  999.0,  999.0,  999.0,  999.0,  999.0,  999.0,  999.0,  999.0,   -2.1,   -2.0,   -1.2,   -1.1,   -0.5,   -0.2,  999.0,    0.0,    1.2,    2.0,    2.8,    2.3,    1.7,    1.4,  999.0,  999.0,  999.0,  999.0,  999.0,  999.0,  999.0,  999.0,  999.0,  999.0,  999.0,  999.0,   -0.5,  999.0,  999.0,   -1.7,  999.0,   -2.5,   -3.3,   -4.1,   -3.6,   -4.5,   -4.2,   -4.0,   -3.2,   -3.9,  999.0,  999.0,  999.0,  999.0,  999.0,  999.0,  999.0,  999.0,  999.0,  999.0,  999.0,  999.0,  999.0,  999.0,  999.0,  999.0,  999.0,  999.0,  999.0,  999.0,  999.0,  999.0,  999.0,  999.0,  999.0,  999.0,  999.0,  999.0,  999.0,  999.0,  999.0,  999.0,  999.0,  999.0,  999.0,  999.0,  999.0,  999.0,  999.0
2009/10/31 05:10,  999.0,  999.0,  999.0,  999.0,  999.0,  999.0,  999.0,  999.0,  999.0,  999.0,  999.0,  999.0,  999.0,  999.0,  999.0,  999.0,  999.0,  999.0,   -3.0,   -2.6,   -2.5,   -1.4,   -1.0,   -0.2,   -0.6,   -0.1,   -0.0,    1.3,    2.1,  999.0,  999.0,    1.5,    0.9,    0.7,  999.0,  999.0,    2.1,  999.0,  999.0,  999.0,  999.0,  999.0,  999.0,  999.0,   -0.4,   -1.2,   -1.6,   -1.2,   -1.6,   -1.4,   -2.3,   -3.8,   -4.3,   -3.9,   -4.2,   -4.7,  999.0,  999.0,   -3.9,  999.0,  999.0,  999.0,  999.0,  999.0,  999.0,  999.0,  999.0,  999.0,  999.0,  999.0,  999.0,  999.0,  999.0,  999.0,  999.0,  999.0,  999.0,  999.0,  999.0,  999.0,  999.0,  999.0,  999.0,  999.0,  999.0,  999.0,  999.0,  999.0,  999.0,  999.0,  999.0,  999.0,  999.0,  999.0,  999.0,  999.0,  999.0,  999.0
2009/10/31 05:20,  999.0,  999.0,  999.0,  999.0,    3.5,    2.6,    2.8,    2.7,    1.5,    0.9,  999.0,   -1.0,   -1.2,   -1.0,   -1.5,   -2.2,   -2.7,   -2.3,   -2.3,   -2.6,   -2.0,   -1.0,   -0.1,   -0.1,   -0.4,   -0.3,    0.6,    1.3,    1.7,    1.7,    1.7,    0.8,    0.1,    0.1,    0.1,    0.3,  999.0,  999.0,  999.0,  999.0,  999.0,  999.0,  999.0,  999.0,  999.0,   -1.0,   -1.0,  999.0,   -1.0,   -1.3,   -2.3,   -3.7,   -4.0,   -3.2,   -3.4,  999.0,   -2.5,   -2.5,   -3.5,  999.0,  999.0,  999.0,  999.0,  999.0,  999.0,  999.0,  999.0,  999.0,  999.0,  999.0,  999.0,  999.0,  999.0,  999.0,  999.0,  999.0,  999.0,  999.0,  999.0,  999.0,  999.0,  999.0,  999.0,  999.0,  999.0,  999.0,  999.0,  999.0,  999.0,  999.0,  999.0,  999.0,  999.0,  999.0,  999.0,  999.0,  999.0,  999.0
2009/10/31 05:30,  999.0,  999.0,  999.0,  999.0,  999.0,  999.0,  999.0,  999.0,    1.6,    0.8,    0.3,   -0.1,   -0.6,   -0.2,   -0.5,   -1.0,   -2.1,   -2.5,   -1.8,   -2.0,   -1.8,   -0.7,    0.0,   -0.3,   -0.3,    0.1,    1.1,    1.9,    1.6,    1.6,    0.8,    0.7,    0.1,   -0.2,   -0.6,  999.0,  999.0,  999.0,  999.0,  999.0,  999.0,  999.0,  999.0,  999.0,  999.0,   -1.3,  999.0,   -1.5,   -1.8,   -1.9,   -2.3,   -3.1,   -3.2,   -3.0,  999.0,   -3.1,   -2.9,  999.0,  999.0,  999.0,  999.0,  999.0,  999.0,  999.0,  999.0,  999.0,  999.0,  999.0,  999.0,  999.0,  999.0,  999.0,  999.0,  999.0,  999.0,  999.0,  999.0,  999.0,  999.0,  999.0,  999.0,  999.0,  999.0,  999.0,  999.0,  999.0,  999.0,  999.0,  999.0,  999.0,  999.0,  999.0,  999.0,  999.0,  999.0,  999.0,  999.0,  999.0
2009/10/31 05:40,  999.0,  999.0,  999.0,  999.0,    3.1,    2.9,    2.9,    2.7,    2.1,    1.6,    0.7,    0.1,    0.3,    0.1,   -0.2,   -0.5,   -0.6,   -1.2,   -0.9,   -1.2,   -1.4,   -0.3,    0.2,   -0.2,    0.0,    0.3,    0.9,    1.2,    1.1,    1.3,    0.6,    0.3,   -0.8,   -1.2,  999.0,   -0.5,  999.0,  999.0,  999.0,  999.0,  999.0,  999.0,  999.0,  999.0,  999.0,  999.0,  999.0,   -1.8,   -1.7,  999.0,  999.0,   -3.4,   -3.1,   -3.1,   -2.9,   -3.0,   -2.5,  999.0,   -3.6,  999.0,  999.0,  999.0,  999.0,  999.0,  999.0,  999.0,  999.0,  999.0,  999.0,  999.0,  999.0,  999.0,  999.0,  999.0,  999.0,  999.0,  999.0,  999.0,  999.0,  999.0,  999.0,  999.0,  999.0,  999.0,  999.0,  999.0,  999.0,  999.0,  999.0,  999.0,  999.0,  999.0,  999.0,  999.0,  999.0,  999.0,  999.0,  999.0
2009/10/31 05:50,    0.2,    1.2,  999.0,    3.6,    3.5,    3.2,    2.4,    2.4,    2.4,    1.8,    1.1,    0.5,    0.1,   -0.9,   -0.7,   -0.3,    0.4,   -0.4,   -0.5,   -0.2,    0.1,   -0.0,    1.4,    1.0,    0.0,    0.2,    0.4,    0.8,    1.1,    1.1,    0.5,    0.1,   -1.0,   -1.8,   -2.4,   -1.8,  999.0,  999.0,  999.0,  999.0,  999.0,  999.0,  999.0,  999.0,  999.0,  999.0,  999.0,  999.0,  999.0,   -2.0,  999.0,  999.0,   -2.5,   -2.8,   -2.7,   -3.0,   -2.9,  999.0,   -3.1,  999.0,  999.0,  999.0,  999.0,  999.0,  999.0,  999.0,  999.0,  999.0,  999.0,  999.0,  999.0,  999.0,  999.0,  999.0,  999.0,  999.0,  999.0,  999.0,  999.0,  999.0,  999.0,  999.0,  999.0,  999.0,  999.0,  999.0,  999.0,  999.0,  999.0,  999.0,  999.0,  999.0,  999.0,  999.0,  999.0,  999.0,  999.0,  999.0
2009/10/31 06:00,  999.0,  999.0,  999.0,  999.0,    3.5,    3.6,    3.3,    2.8,    2.4,    2.5,    1.5,    0.7,   -0.7,   -0.7,   -0.4,  999.0,    1.4,    1.6,    0.7,    1.3,    3.3,  999.0,    4.4,    1.9,    0.4,    0.5,    0.9,    2.0,    2.7,    2.3,    1.6,    0.8,    0.2,   -1.8,   -2.0,   -1.5,   -0.4,  999.0,  999.0,  999.0,  999.0,  999.0,  999.0,  999.0,  999.0,  999.0,  999.0,  999.0,  999.0,  999.0,  999.0,  999.0,  999.0,   -2.6,   -3.0,  999.0,   -2.7,   -2.8,   -3.4,  999.0,  999.0,  999.0,  999.0,  999.0,  999.0,  999.0,  999.0,  999.0,  999.0,  999.0,  999.0,  999.0,  999.0,  999.0,  999.0,  999.0,  999.0,  999.0,  999.0,  999.0,  999.0,  999.0,  999.0,  999.0,  999.0,  999.0,  999.0,  999.0,  999.0,  999.0,  999.0,  999.0,  999.0,  999.0,  999.0,  999.0,  999.0,  999.0
2009/10/31 06:10,  999.0,  999.0,  999.0,  999.0,  999.0,  999.0,  999.0,  999.0,  999.0,    1.2,    0.1,    0.0,    0.2,   -0.2,   -0.8,   -0.5,   -0.8,   -0.8,   -0.2,   -0.1,   -0.3,    0.5,    1.3,    1.8,    1.9,    1.9,    2.1,    1.9,    2.4,    2.2,    1.4,    0.7,   -0.3,   -0.9,   -1.9,   -1.0,    0.6,  999.0,  999.0,  999.0,  999.0,  999.0,  999.0,  999.0,  999.0,  999.0,  999.0,  999.0,  999.0,  999.0,   -2.2,  999.0,  999.0,   -2.0,   -2.0,   -2.1,  999.0,   -2.8,   -2.7,  999.0,  999.0,  999.0,  999.0,  999.0,  999.0,  999.0,  999.0,  999.0,  999.0,  999.0,  999.0,  999.0,  999.0,  999.0,  999.0,  999.0,  999.0,  999.0,  999.0,  999.0,  999.0,  999.0,  999.0,  999.0,  999.0,  999.0,  999.0,  999.0,  999.0,  999.0,  999.0,  999.0,  999.0,  999.0,  999.0,  999.0,  999.0,  999.0
2009/10/31 06:20,  999.0,  999.0,  999.0,  999.0,  999.0,  999.0,  999.0,  999.0,  999.0,  999.0,  999.0,    0.3,    0.8,    0.5,    0.2,   -0.2,   -0.4,   -0.6,   -0.6,   -0.5,   -0.7,   -0.6,    0.2,    0.7,    1.1,    1.0,    1.3,    1.2,    1.3,    1.3,  999.0,    0.0,   -0.3,   -0.8,   -0.7,   -1.2,   -0.9,  999.0,  999.0,  999.0,  999.0,  999.0,  999.0,  999.0,  999.0,  999.0,  999.0,  999.0,  999.0,  999.0,  999.0,   -2.1,   -2.3,   -2.5,   -2.9,   -2.6,   -2.7,   -3.0,   -3.4,  999.0,  999.0,  999.0,  999.0,  999.0,  999.0,  999.0,  999.0,  999.0,  999.0,  999.0,  999.0,  999.0,  999.0,  999.0,  999.0,  999.0,  999.0,  999.0,  999.0,  999.0,  999.0,  999.0,  999.0,  999.0,  999.0,  999.0,  999.0,  999.0,  999.0,  999.0,  999.0,  999.0,  999.0,  999.0,  999.0,  999.0,  999.0,  999.0
2009/10/31 06:30,  999.0,  999.0,  999.0,  999.0,  999.0,  999.0,  999.0,  999.0,  999.0,  999.0,   -0.3,    0.6,    1.2,    1.1,    1.0,    0.8,    0.1,   -0.1,    0.3,    0.1,    0.2,    0.1,    0.0,    0.7,    1.5,    1.3,    1.4,    1.9,  999.0,  999.0,  999.0,  999.0,  999.0,   -1.6,  999.0,   -0.9,  999.0,  999.0,  999.0,  999.0,  999.0,  999.0,  999.0,  999.0,  999.0,  999.0,  999.0,  999.0,  999.0,  999.0,  999.0,  999.0,   -1.9,   -2.3,   -2.6,   -2.9,  999.0,  999.0,   -3.2,  999.0,  999.0,  999.0,  999.0,  999.0,  999.0,  999.0,  999.0,  999.0,  999.0,  999.0,  999.0,  999.0,  999.0,  999.0,  999.0,  999.0,  999.0,  999.0,  999.0,  999.0,  999.0,  999.0,  999.0,  999.0,  999.0,  999.0,  999.0,  999.0,  999.0,  999.0,  999.0,  999.0,  999.0,  999.0,  999.0,  999.0,  999.0,  999.0
2009/10/31 06:40,  999.0,  999.0,  999.0,  999.0,  999.0,  999.0,  999.0,    0.1,    0.4,  999.0,    0.5,    0.3,    0.0,   -0.4,   -0.4,   -0.4,   -0.5,   -0.3,   -0.2,    0.1,    0.2,    0.2,   -0.0,    0.1,    0.3,    0.1,   -0.2,   -0.3,  999.0,  999.0,  999.0,  999.0,   -0.9,   -2.2,   -3.6,   -1.5,  999.0,  999.0,  999.0,  999.0,  999.0,  999.0,  999.0,  999.0,  999.0,  999.0,  999.0,  999.0,  999.0,  999.0,   -1.3,   -1.5,   -1.6,   -2.0,   -2.3,   -2.8,   -2.9,  999.0,  999.0,  999.0,  999.0,  999.0,  999.0,  999.0,  999.0,  999.0,  999.0,  999.0,  999.0,  999.0,  999.0,  999.0,  999.0,  999.0,  999.0,  999.0,  999.0,  999.0,  999.0,  999.0,  999.0,  999.0,  999.0,  999.0,  999.0,  999.0,  999.0,  999.0,  999.0,  999.0,  999.0,  999.0,  999.0,  999.0,  999.0,  999.0,  999.0,  999.0
2009/10/31 06:50,  999.0,  999.0,    2.0,    2.6,    1.6,    0.3,    0.6,    0.3,    0.4,   -0.2,   -0.2,    0.7,    0.4,    0.1,  999.0,   -0.4,   -0.7,   -0.9,   -0.3,   -0.2,   -0.6,   -0.4,   -0.2,   -0.3,   -0.2,   -0.1,   -0.6,   -0.6,   -0.3,   -0.2,  999.0,  999.0,   -1.1,   -2.0,   -2.4,   -1.7,  999.0,  999.0,  999.0,  999.0,  999.0,  999.0,  999.0,  999.0,  999.0,  999.0,  999.0,  999.0,  999.0,  999.0,   -1.9,   -1.8,   -1.6,   -1.7,   -2.2,   -2.2,   -2.6,   -3.4,   -2.8,  999.0,  999.0,  999.0,  999.0,  999.0,  999.0,  999.0,  999.0,  999.0,  999.0,  999.0,  999.0,  999.0,  999.0,  999.0,  999.0,  999.0,  999.0,  999.0,  999.0,  999.0,  999.0,  999.0,  999.0,  999.0,  999.0,  999.0,  999.0,  999.0,  999.0,  999.0,  999.0,  999.0,  999.0,  999.0,  999.0,  999.0,  999.0,  999.0
2009/10/31 07:00,  999.0,    0.2,    1.7,    1.4,    1.7,    1.2,    1.0,    0.2,   -0.3,   -0.7,   -0.5,   -0.5,   -0.3,   -0.2,    0.2,    0.7,    0.6,   -0.4,   -0.7,   -0.6,   -0.5,   -0.1,    0.1,    0.3,   -0.2,   -0.2,   -0.4,   -0.8,   -0.1,  999.0,  999.0,  999.0,   -1.1,   -1.4,   -1.5,   -0.8,  999.0,  999.0,  999.0,  999.0,  999.0,  999.0,  999.0,  999.0,  999.0,   -2.0,   -2.3,  999.0,  999.0,   -2.2,   -1.9,   -1.4,   -1.1,   -1.4,   -1.3,   -1.8,   -2.9,   -2.9,   -2.9,  999.0,  999.0,  999.0,  999.0,  999.0,  999.0,  999.0,  999.0,  999.0,  999.0,  999.0,  999.0,  999.0,  999.0,  999.0,  999.0,  999.0,  999.0,  999.0,  999.0,  999.0,  999.0,  999.0,  999.0,  999.0,  999.0,  999.0,  999.0,  999.0,  999.0,  999.0,  999.0,  999.0,  999.0,  999.0,  999.0,  999.0,  999.0,  999.0
2009/10/31 07:10,   -0.1,   -0.1,    1.0,    0.4,    1.2,    1.4,    0.9,    0.7,    0.2,    0.0,   -0.1,   -0.0,   -0.1,   -0.1,   -0.0,    0.2,    0.3,   -0.3,   -0.9,   -1.3,   -1.2,   -0.3,    0.2,   -0.3,   -0.1,   -0.0,   -0.2,   -0.0,  999.0,  999.0,  999.0,   -0.8,   -1.7,   -2.1,   -1.1,  999.0,  999.0,  999.0,  999.0,  999.0,  999.0,  999.0,  999.0,  999.0,  999.0,  999.0,   -1.9,  999.0,  999.0,  999.0,   -0.8,   -0.7,   -0.7,   -1.0,   -1.6,   -0.7,   -2.8,   -2.9,  999.0,  999.0,  999.0,  999.0,  999.0,  999.0,  999.0,  999.0,  999.0,  999.0,  999.0,  999.0,  999.0,  999.0,  999.0,  999.0,  999.0,  999.0,  999.0,  999.0,  999.0,  999.0,  999.0,  999.0,  999.0,  999.0,  999.0,  999.0,  999.0,  999.0,  999.0,  999.0,  999.0,  999.0,  999.0,  999.0,  999.0,  999.0,  999.0,  999.0
2009/10/31 07:20,   -0.2,   -0.1,    0.3,    0.6,    1.4,    1.0,    1.0,    0.3,    0.5,    0.3,   -0.3,   -0.3,   -0.1,   -0.1,   -0.1,  999.0,  999.0,    0.4,   -0.0,   -0.9,   -1.2,    0.2,    0.4,    0.4,   -0.0,   -0.0,    0.6,    0.9,    0.7,  999.0,  999.0,   -0.3,   -1.1,   -1.0,   -1.5,   -1.5,  999.0,  999.0,  999.0,    1.3,  999.0,  999.0,  999.0,  999.0,  999.0,   -1.5,   -1.3,  999.0,   -1.2,   -1.0,   -0.6,   -0.5,   -1.3,   -1.8,  999.0,  999.0,   -3.0,  999.0,  999.0,  999.0,  999.0,  999.0,  999.0,  999.0,  999.0,  999.0,  999.0,  999.0,  999.0,  999.0,  999.0,  999.0,  999.0,  999.0,  999.0,  999.0,  999.0,  999.0,  999.0,  999.0,  999.0,  999.0,  999.0,  999.0,  999.0,  999.0,  999.0,  999.0,  999.0,  999.0,  999.0,  999.0,  999.0,  999.0,  999.0,  999.0,  999.0,  999.0
2009/10/31 07:30,  999.0,   -0.1,    0.2,    1.1,    1.7,    1.7,    1.4,    1.4,    1.0,    0.6,   -0.4,   -0.5,   -0.1,    0.1,    0.1,    0.2,   -0.4,   -0.5,   -0.1,   -1.2,   -0.9,  999.0,   -0.4,   -0.3,   -0.2,   -0.0,    0.1,  999.0,   -0.1,    0.4,  999.0,  999.0,   -0.0,   -0.8,   -0.7,   -0.9,  999.0,  999.0,  999.0,  999.0,  999.0,  999.0,  999.0,  999.0,  999.0,   -2.0,  999.0,   -1.4,   -1.0,   -0.8,   -0.4,   -0.3,   -1.1,   -1.6,   -2.3,   -3.0,  999.0,  999.0,  999.0,  999.0,  999.0,  999.0,  999.0,  999.0,  999.0,   -1.5,   -1.6,  999.0,  999.0,  999.0,  999.0,  999.0,  999.0,  999.0,  999.0,  999.0,  999.0,  999.0,  999.0,  999.0,  999.0,  999.0,  999.0,  999.0,  999.0,  999.0,  999.0,  999.0,  999.0,  999.0,  999.0,  999.0,  999.0,  999.0,  999.0,  999.0,  999.0,  999.0
2009/10/31 07:40,   -0.7,   -0.3,    0.1,    0.8,    1.5,    1.5,    1.1,    1.0,    0.1,   -0.2,   -0.4,   -0.2,    0.2,    0.3,    0.2,    0.1,   -0.2,   -0.6,   -0.7,   -0.7,   -0.7,   -0.4,    0.3,    0.4,   -0.2,   -0.1,    0.7,    0.1,   -0.4,   -0.2,  999.0,  999.0,  999.0,   -1.1,   -1.5,   -0.8,  999.0,  999.0,    0.0,    0.3,   -0.3,   -1.3,  999.0,  999.0,   -2.1,  999.0,  999.0,   -1.0,   -1.1,   -1.5,   -0.6,   -0.4,   -0.6,   -1.2,   -2.0,   -2.8,   -2.8,   -2.8,  999.0,   -0.8,  999.0,  999.0,  999.0,  999.0,  999.0,   -0.9,  999.0,  999.0,  999.0,  999.0,  999.0,  999.0,  999.0,  999.0,  999.0,  999.0,  999.0,  999.0,  999.0,  999.0,  999.0,  999.0,  999.0,  999.0,  999.0,  999.0,  999.0,  999.0,  999.0,  999.0,  999.0,  999.0,  999.0,  999.0,  999.0,  999.0,  999.0,  999.0
2009/10/31 07:50,   -0.5,   -0.2,    0.1,    0.8,    1.5,    1.6,    1.2,    0.5,   -0.3,   -0.3,   -0.2,   -0.0,    0.1,    0.2,    0.0,   -0.0,   -0.2,   -0.3,    0.1,    0.2,    0.3,    0.0,    0.8,    0.7,    0.3,    0.4,    0.5,   -0.2,   -0.4,  999.0,  999.0,  999.0,  999.0,   -1.1,   -1.3,   -0.9,  999.0,  999.0,  999.0,  999.0,    0.1,   -1.0,   -1.1,  999.0,   -1.8,  999.0,   -0.1,   -0.7,   -1.1,   -1.7,   -1.1,   -1.0,   -0.6,   -0.6,   -1.1,  999.0,   -2.1,   -1.5,  999.0,  999.0,  999.0,  999.0,  999.0,  999.0,  999.0,  999.0,  999.0,  999.0,  999.0,  999.0,  999.0,  999.0,  999.0,  999.0,  999.0,  999.0,  999.0,  999.0,  999.0,  999.0,  999.0,  999.0,  999.0,  999.0,  999.0,  999.0,  999.0,  999.0,  999.0,  999.0,  999.0,  999.0,  999.0,  999.0,  999.0,  999.0,  999.0,  999.0
2009/10/31 08:00,   -0.4,   -0.2,   -0.1,    0.9,    1.4,    1.0,    0.9,    0.3,   -0.2,    0.0,    0.2,    0.2,    0.3,    0.2,    0.4,    0.8,    0.9,    0.5,    0.9,    0.8,    0.3,    0.9,  999.0,    1.8,    0.9,    1.1,    0.4,    0.1,    0.1,    0.1,  999.0,  999.0,   -1.2,   -1.0,   -1.4,   -1.2,   -1.0,  999.0,  999.0,  999.0,  999.0,   -0.5,   -1.0,   -1.3,  999.0,   -1.4,   -0.8,   -0.6,   -1.0,   -1.8,   -1.5,   -0.9,   -0.5,   -0.1,    0.3,   -0.6,   -1.5,   -2.0,  999.0,  999.0,  999.0,  999.0,  999.0,  999.0,  999.0,  999.0,  999.0,  999.0,  999.0,  999.0,  999.0,  999.0,  999.0,  999.0,  999.0,  999.0,  999.0,  999.0,  999.0,  999.0,  999.0,  999.0,  999.0,  999.0,  999.0,  999.0,  999.0,  999.0,  999.0,  999.0,  999.0,  999.0,  999.0,  999.0,  999.0,  999.0,  999.0,  999.0
2009/10/31 08:10,   -0.2,   -0.5,    0.5,    1.1,    1.3,    1.0,    0.3,    0.2,   -0.0,    0.1,   -0.3,   -0.1,    0.2,   -0.0,    0.1,    1.1,    1.5,    1.4,    1.0,    0.5,    0.6,    0.9,    1.7,    1.9,  999.0,    1.3,    0.6,    0.3,    0.1,    0.2,  999.0,  999.0,  999.0,   -1.6,   -1.8,   -1.6,   -1.3,  999.0,  999.0,  999.0,    0.3,  999.0,   -0.8,   -1.1,   -1.3,   -1.5,   -1.0,   -0.9,   -2.4,   -3.0,   -2.4,   -2.0,   -1.1,   -0.4,   -0.2,   -0.6,   -1.1,   -1.7,  999.0,  999.0,  999.0,  999.0,  999.0,  999.0,  999.0,  999.0,  999.0,  999.0,  999.0,  999.0,  999.0,  999.0,  999.0,  999.0,  999.0,  999.0,  999.0,  999.0,  999.0,  999.0,  999.0,  999.0,  999.0,  999.0,  999.0,  999.0,  999.0,  999.0,  999.0,  999.0,  999.0,  999.0,  999.0,  999.0,  999.0,  999.0,  999.0,  999.0
2009/10/31 08:20,   -0.2,   -0.1,    0.2,    0.7,    0.3,    0.5,   -0.2,   -0.4,   -0.1,    0.1,    0.3,    0.2,    0.2,   -0.2,    0.3,    0.7,    0.9,    1.0,    0.8,    0.9,    1.0,    1.7,    1.5,    1.5,    1.8,    0.9,    0.5,    0.4,    0.0,    0.5,  999.0,  999.0,   -1.3,   -1.8,   -2.2,   -1.5,   -1.5,  999.0,  999.0,  999.0,  999.0,   -0.2,   -0.8,   -0.7,   -1.0,   -1.2,   -1.1,   -1.1,   -2.2,   -2.4,   -2.2,   -1.5,   -2.2,   -1.9,   -0.6,   -0.6,   -1.4,   -1.2,  999.0,  999.0,  999.0,  999.0,  999.0,  999.0,  999.0,  999.0,  999.0,  999.0,  999.0,  999.0,  999.0,  999.0,  999.0,  999.0,  999.0,  999.0,  999.0,  999.0,  999.0,  999.0,  999.0,  999.0,  999.0,  999.0,  999.0,  999.0,  999.0,  999.0,  999.0,  999.0,  999.0,  999.0,  999.0,  999.0,  999.0,  999.0,  999.0,  999.0
2009/10/31 08:30,    0.3,   -0.0,    0.3,    0.7,    0.2,   -0.1,   -1.0,   -1.0,   -0.6,   -0.1,    0.4,    0.3,    0.2,    0.2,    0.2,    0.6,    0.8,    0.6,    0.9,    0.8,    1.0,    1.6,    1.8,    1.2,    1.0,    0.8,    0.6,    0.8,    0.4,    0.3,  999.0,  999.0,  999.0,   -1.3,   -1.6,   -1.2,  999.0,  999.0,   -1.1,  999.0,  999.0,   -0.3,   -0.9,   -0.7,  999.0,   -0.6,  999.0,   -0.9,   -2.0,   -1.6,   -1.9,   -1.5,   -2.1,   -2.2,   -1.3,   -0.9,   -1.8,   -1.5,   -1.1,  999.0,  999.0,  999.0,  999.0,  999.0,  999.0,  999.0,  999.0,  999.0,  999.0,  999.0,  999.0,  999.0,  999.0,  999.0,  999.0,  999.0,  999.0,  999.0,  999.0,  999.0,  999.0,  999.0,  999.0,  999.0,  999.0,  999.0,  999.0,  999.0,  999.0,  999.0,  999.0,  999.0,  999.0,  999.0,  999.0,  999.0,  999.0,  999.0
2009/10/31 08:40,    0.4,    0.4,    1.0,    1.2,   -0.2,   -1.3,   -1.7,   -1.5,   -1.2,   -0.0,    0.2,   -0.1,   -0.2,   -0.4,   -0.2,    0.3,    0.5,    0.6,    1.0,    1.0,    1.1,    1.4,    2.1,    1.6,    0.7,    1.0,    0.7,    0.7,    0.9,    0.6,  999.0,  999.0,  999.0,   -1.4,   -1.4,   -1.0,   -1.0,  999.0,   -0.6,  999.0,   -0.2,   -0.2,   -0.7,  999.0,  999.0,   -1.0,  999.0,   -2.2,   -2.1,   -2.0,   -2.3,   -2.6,   -2.1,   -2.2,   -1.5,   -1.4,   -1.1,   -1.7,   -0.5,  999.0,  999.0,  999.0,  999.0,  999.0,  999.0,  999.0,  999.0,  999.0,  999.0,  999.0,  999.0,  999.0,  999.0,  999.0,  999.0,  999.0,  999.0,  999.0,  999.0,  999.0,  999.0,  999.0,  999.0,  999.0,  999.0,  999.0,  999.0,  999.0,  999.0,  999.0,  999.0,  999.0,  999.0,  999.0,  999.0,  999.0,  999.0,  999.0
2009/10/31 08:50,    0.0,   -0.5,   -0.9,   -0.3,   -1.3,   -1.7,   -2.0,   -1.5,   -1.5,   -0.6,   -0.5,   -0.5,   -0.6,   -0.4,   -0.2,    0.0,    0.4,    0.6,    0.8,    1.0,    1.3,    1.6,    2.2,    1.8,    1.3,    0.9,  999.0,    1.1,    1.3,    0.6,    0.2,  999.0,   -1.0,   -1.9,   -2.3,   -1.9,   -1.1,  999.0,  999.0,    0.8,    0.5,   -0.9,   -1.0,  999.0,  999.0,   -0.7,  999.0,   -1.7,   -1.6,   -2.0,  999.0,   -1.4,   -1.8,   -1.9,   -1.4,   -2.0,   -2.0,   -0.9,  999.0,  999.0,  999.0,  999.0,  999.0,  999.0,  999.0,  999.0,  999.0,  999.0,  999.0,  999.0,  999.0,  999.0,  999.0,  999.0,  999.0,  999.0,  999.0,  999.0,  999.0,  999.0,  999.0,  999.0,  999.0,  999.0,  999.0,  999.0,  999.0,  999.0,  999.0,  999.0,  999.0,  999.0,  999.0,  999.0,  999.0,  999.0,  999.0,  999.0
2009/10/31 09:00,   -0.1,   -0.3,   -0.4,   -0.7,   -1.3,   -1.5,   -1.2,   -1.3,   -1.0,   -0.4,   -0.1,   -0.7,   -0.5,   -0.3,    0.1,    0.3,    0.2,   -0.0,   -0.2,    0.1,    0.7,    0.9,    1.6,    1.5,    0.9,    0.8,    0.8,  999.0,    0.9,    0.1,   -0.4,   -0.6,   -1.0,   -1.8,   -2.2,  999.0,  999.0,  999.0,  999.0,  999.0,    0.1,    0.2,    0.2,   -0.2,   -0.3,   -1.4,   -1.6,   -1.7,   -1.5,   -1.7,   -1.2,   -1.3,   -1.7,   -1.8,   -1.9,   -2.4,   -2.4,   -1.3,   -0.9,  999.0,  999.0,  999.0,  999.0,  999.0,  999.0,  999.0,  999.0,  999.0,  999.0,  999.0,  999.0,  999.0,  999.0,  999.0,  999.0,  999.0,  999.0,  999.0,  999.0,  999.0,  999.0,  999.0,  999.0,  999.0,  999.0,  999.0,  999.0,  999.0,  999.0,  999.0,  999.0,  999.0,  999.0,  999.0,  999.0,  999.0,  999.0,  999.0
2009/10/31 09:10,   -0.2,   -0.7,   -0.6,   -0.5,   -1.3,   -1.0,   -1.0,   -0.7,   -0.8,   -0.6,   -0.3,    0.1,    0.0,   -0.3,   -0.1,   -0.1,   -0.2,   -0.4,   -0.4,    0.5,    0.9,    0.7,    1.4,    1.5,    1.1,    0.7,    1.1,    1.5,    1.7,    0.4,   -0.6,   -0.8,   -1.5,   -1.9,   -2.1,  999.0,  999.0,  999.0,  999.0,  999.0,    0.7,    1.1,    1.1,    0.8,  999.0,  999.0,  999.0,   -1.1,   -0.6,   -0.6,   -0.5,   -0.5,   -1.2,   -1.6,   -1.7,   -2.1,   -2.1,   -1.8,  999.0,  999.0,  999.0,  999.0,  999.0,  999.0,  999.0,  999.0,  999.0,  999.0,  999.0,  999.0,  999.0,  999.0,  999.0,  999.0,  999.0,  999.0,  999.0,  999.0,  999.0,  999.0,  999.0,  999.0,  999.0,  999.0,  999.0,  999.0,  999.0,  999.0,  999.0,  999.0,  999.0,  999.0,  999.0,  999.0,  999.0,  999.0,  999.0,  999.0
2009/10/31 09:20,    0.4,   -1.1,   -2.6,   -1.9,   -2.0,   -1.1,   -1.7,   -1.4,   -1.4,   -1.4,   -0.6,   -0.1,    0.2,    0.5,   -0.4,    0.4,    0.0,   -0.4,   -0.5,   -0.2,    0.5,    0.2,    0.6,    0.9,    1.0,    1.2,    0.8,    1.1,    1.2,    0.0,   -0.9,  999.0,   -1.5,   -2.1,   -2.4,  999.0,  999.0,  999.0,  999.0,    0.8,    1.1,    1.2,  999.0,  999.0,  999.0,  999.0,  999.0,  999.0,    0.2,  999.0,  999.0,   -0.6,   -1.0,   -1.7,   -2.2,   -2.6,   -2.4,   -2.3,  999.0,  999.0,  999.0,  999.0,  999.0,  999.0,  999.0,  999.0,  999.0,  999.0,  999.0,  999.0,  999.0,  999.0,  999.0,  999.0,  999.0,  999.0,  999.0,  999.0,  999.0,  999.0,  999.0,  999.0,  999.0,  999.0,  999.0,  999.0,  999.0,  999.0,  999.0,  999.0,  999.0,  999.0,  999.0,  999.0,  999.0,  999.0,  999.0,  999.0
2009/10/31 09:30,  999.0,   -0.6,  999.0,   -0.6,   -1.1,   -0.3,   -0.3,   -0.5,   -0.3,   -0.4,    0.1,    1.0,    0.6,    0.7,    0.7,    1.2,    1.5,    1.4,    0.6,    0.7,    0.8,    1.2,    1.2,    1.7,    1.6,    1.4,    1.1,    1.1,    1.4,    1.1,    0.2,   -0.4,   -1.0,   -1.4,   -1.8,  999.0,  999.0,  999.0,  999.0,   -1.0,   -0.4,  999.0,  999.0,  999.0,  999.0,  999.0,  999.0,  999.0,  999.0,   -0.4,  999.0,  999.0,   -0.5,   -1.2,  999.0,   -1.9,   -2.1,   -2.0,  999.0,  999.0,  999.0,  999.0,  999.0,  999.0,  999.0,  999.0,  999.0,  999.0,  999.0,  999.0,  999.0,  999.0,  999.0,  999.0,  999.0,  999.0,  999.0,  999.0,  999.0,  999.0,  999.0,  999.0,  999.0,  999.0,  999.0,  999.0,  999.0,  999.0,  999.0,  999.0,  999.0,  999.0,  999.0,  999.0,  999.0,  999.0,  999.0,  999.0
2009/10/31 09:40,   -0.2,   -0.9,   -1.3,   -1.3,   -1.1,   -0.8,   -0.9,   -1.0,   -0.2,   -0.5,   -1.2,   -0.4,   -0.1,    0.2,    0.9,    1.3,    1.0,    0.7,    0.2,    0.1,    0.3,    0.9,    1.2,    0.2,   -0.3,    0.3,    0.2,   -0.7,   -0.7,   -0.5,   -0.8,   -1.1,   -1.5,   -1.9,   -2.8,  999.0,  999.0,  999.0,  999.0,  999.0,    0.2,    0.4,  999.0,  999.0,  999.0,  999.0,  999.0,  999.0,   -0.7,   -0.3,  999.0,  999.0,  999.0,   -1.1,  999.0,   -2.0,   -2.0,   -2.1,   -2.3,  999.0,  999.0,  999.0,  999.0,  999.0,  999.0,  999.0,  999.0,  999.0,  999.0,  999.0,  999.0,  999.0,  999.0,  999.0,  999.0,  999.0,  999.0,  999.0,  999.0,  999.0,  999.0,  999.0,  999.0,  999.0,  999.0,  999.0,  999.0,  999.0,  999.0,  999.0,  999.0,  999.0,  999.0,  999.0,  999.0,  999.0,  999.0,  999.0
2009/10/31 09:50,   -1.1,   -1.3,   -1.6,   -1.4,   -1.4,   -0.8,   -0.2,   -0.8,   -1.2,    1.0,   -0.0,    1.3,    1.7,    2.2,    2.2,    1.9,    2.3,    1.8,    1.6,    2.5,    3.9,    4.4,    4.6,    4.6,    5.1,    3.8,    3.1,    2.7,    3.2,    2.7,    2.1,    2.1,  999.0,    0.1,    0.3,  999.0,    5.2,  999.0,  999.0,  999.0,  999.0,  999.0,  999.0,  999.0,  999.0,  999.0,  999.0,    0.3,    0.5,    0.6,    0.9,    1.0,    0.9,    0.3,  999.0,  999.0,   -1.0,   -1.3,   -1.2,  999.0,  999.0,  999.0,  999.0,  999.0,  999.0,  999.0,  999.0,  999.0,  999.0,  999.0,  999.0,  999.0,  999.0,  999.0,  999.0,  999.0,  999.0,  999.0,  999.0,  999.0,  999.0,  999.0,  999.0,  999.0,  999.0,  999.0,  999.0,  999.0,  999.0,  999.0,  999.0,  999.0,  999.0,  999.0,  999.0,  999.0,  999.0,  999.0
2009/10/31 10:00,   -3.4,   -1.3,   -0.5,   -0.4,    0.9,    1.0,    1.7,    2.9,    1.7,    0.9,    0.4,    0.1,    3.2,    2.8,    4.1,    3.7,    2.8,    1.9,   -0.3,   -0.6,    0.4,   -1.4,   -2.5,   -3.5,   -4.9,   -2.5,   -5.7,   -6.1,   -6.8,   -6.1,   -4.6,   -3.7,   -2.5,   -3.0,   -3.4,    0.7,    1.5,    3.5,    6.1,    4.7,    4.5,    4.2,    3.1,  999.0,    0.2,    0.9,    0.1,   -0.2,    0.1,    0.6,    0.6,    1.4,    1.1,   -0.2,   -0.3,  999.0,  999.0,  999.0,  999.0,  999.0,  999.0,  999.0,  999.0,  999.0,  999.0,  999.0,  999.0,  999.0,  999.0,  999.0,  999.0,  999.0,  999.0,  999.0,  999.0,  999.0,  999.0,  999.0,  999.0,  999.0,  999.0,  999.0,  999.0,  999.0,  999.0,  999.0,  999.0,  999.0,  999.0,  999.0,  999.0,  999.0,  999.0,  999.0,  999.0,  999.0,  999.0,  999.0
2009/10/31 10:10,  999.0,  999.0,   -3.6,  999.0,   -2.2,   -0.5,   -0.6,   -1.2,   -1.5,  999.0,    0.5,    1.4,  999.0,  999.0,  999.0,   -1.2,   -1.9,   -2.3,  999.0,   -0.9,   -0.2,   -0.5,   -0.6,    0.5,   -0.4,   -0.6,   -0.5,   -1.1,   -0.2,   -1.0,    1.4,   -0.9,    0.1,   -0.5,   -0.6,   -1.0,    1.0,    1.4,    1.3,    0.2,    1.7,    0.9,    0.7,    0.5,   -0.1,   -0.1,   -1.0,   -0.8,   -0.0,   -0.6,   -0.4,  999.0,   -0.6,   -0.8,  999.0,  999.0,  999.0,  999.0,  999.0,  999.0,  999.0,  999.0,  999.0,  999.0,  999.0,  999.0,  999.0,  999.0,  999.0,  999.0,  999.0,  999.0,  999.0,  999.0,  999.0,  999.0,  999.0,  999.0,  999.0,  999.0,  999.0,  999.0,  999.0,  999.0,  999.0,  999.0,  999.0,  999.0,  999.0,  999.0,  999.0,  999.0,  999.0,  999.0,  999.0,  999.0,  999.0,  999.0
2009/10/31 10:20,  999.0,    0.2,    2.1,    1.0,   -2.9,   -1.1,   -1.2,   -1.0,   -0.5,   -0.9,   -1.1,   -1.1,    1.8,    1.9,    1.7,    1.5,   -1.4,   -2.4,   -3.4,   -1.8,   -1.0,    2.6,    2.2,    2.3,    5.8,    1.8,   -1.2,   -0.6,    0.8,    0.9,    2.3,    0.2,    1.4,    1.8,    2.2,    7.1,    7.2,    9.8,    8.5,    8.5,  999.0,  999.0,  999.0,    7.7,  999.0,  999.0,    5.5,    5.2,    3.9,    3.4,    4.7,    3.7,   -1.2,  999.0,  999.0,  999.0,  999.0,   -2.7,  999.0,  999.0,  999.0,  999.0,  999.0,  999.0,  999.0,  999.0,  999.0,  999.0,  999.0,  999.0,  999.0,  999.0,  999.0,  999.0,  999.0,  999.0,  999.0,  999.0,  999.0,  999.0,  999.0,  999.0,  999.0,  999.0,  999.0,  999.0,  999.0,  999.0,  999.0,  999.0,  999.0,  999.0,  999.0,  999.0,  999.0,  999.0,  999.0,  999.0
2009/10/31 10:30,  -29.2,  999.0,  -30.1,  -29.8,  -30.3,  999.0,  999.0,  999.0,  -27.6,  999.0,  -28.0,  999.0,  -14.2,  -11.1,    0.8,   -2.7,   -6.0,  999.0,   -5.4,    0.9,   -3.8,   -2.2,   -4.3,   -2.4,   -3.5,   -3.6,   -4.5,   -6.6,   -6.3,   -8.6,   -5.9,   -7.6,   -5.1,   -2.9,   -2.7,   -1.8,   -1.2,   -0.9,   -2.1,   -1.8,  999.0,  999.0,  999.0,  999.0,  999.0,   -0.8,    5.1,   -0.3,  999.0,    1.5,  999.0,  999.0,  999.0,    0.8,  999.0,  999.0,    1.6,    1.3,  999.0,    1.6,   -1.3,   -1.3,   -0.8,   -1.8,   -0.7,   -1.9,   -1.8,   -2.7,   -2.3,   -2.1,   -3.7,   -3.4,   -3.9,   -3.5,   -5.4,  999.0,  999.0,   -3.4,  999.0,   -6.1,   -4.6,  999.0,  999.0,   -4.5,  999.0,  999.0,  999.0,  999.0,  999.0,  999.0,  999.0,  999.0,  999.0,  999.0,  999.0,  999.0,  999.0,  999.0
2009/10/31 10:40,  -28.1,  -29.9,  -18.5,  -12.3,  -12.7,   -8.2,    2.2,   -8.6,   -8.5,   -5.6,  -11.5,   -7.1,   -7.6,  -14.8,   -0.7,   -7.2,  999.0,  -13.6,  999.0,  999.0,   -6.5,   -8.1,   -9.0,  -13.3,  -26.4,  -10.3,  999.0,   -1.5,  999.0,    1.5,    1.0,    1.9,    0.3,    0.1,    0.7,    0.1,    0.7,   -0.7,    2.4,   -1.2,    8.3,   -0.0,    5.5,    4.9,  999.0,    6.9,    2.3,    2.1,    3.1,    6.7,   -2.0,    2.5,  999.0,    0.5,    0.8,   -2.8,  999.0,   -3.0,  999.0,   -2.2,   -0.0,  999.0,   -2.8,   -0.1,   -0.7,  999.0,  999.0,    1.0,   -0.9,   -1.0,    0.5,   -1.1,   -3.0,   -2.1,   -4.1,   -0.8,   -5.3,  999.0,  999.0,  999.0,  999.0,  999.0,  999.0,   -4.5,   -3.7,   -3.3,   -3.1,  999.0,   -1.1,  999.0,   -4.5,    0.0,  999.0,  999.0,  999.0,  999.0,  999.0,  999.0
2009/10/31 10:50,  -32.0,  -18.3,  -14.5,  -10.6,   -4.3,   -1.2,    5.0,   -5.1,    5.9,    1.0,    3.6,    0.4,    0.3,    1.0,   -2.3,   -1.9,   -9.5,    7.0,    6.1,    3.4,   11.1,    8.8,    1.2,    6.4,    8.4,    6.3,   -7.9,   -1.6,   -0.4,  999.0,  -15.0,  -17.3,  -21.2,  -12.3,  -11.3,  -20.8,  -15.5,  -24.6,  -28.9,  -12.6,  -16.8,  -12.5,  -18.4,  999.0,    0.9,  999.0,  999.0,    3.1,    0.3,    3.5,  999.0,   -4.5,   -2.9,  999.0,   -4.1,  999.0,   -1.3,  999.0,   -8.1,   -5.4,  999.0,  999.0,  999.0,   -9.0,  999.0,   -6.1,   -4.3,  999.0,  999.0,  999.0,   -4.6,   -1.6,  999.0,  999.0,  999.0,  999.0,  999.0,  999.0,  999.0,  999.0,  999.0,  999.0,   -6.8,  999.0,  999.0,   -5.1,  999.0,  999.0,  999.0,  999.0,  999.0,  999.0,  999.0,  999.0,  999.0,  999.0,  999.0,  999.0
2009/10/31 11:00,   -7.8,   -2.3,   -4.2,  -14.3,  -19.5,  -15.3,  -16.0,  -19.4,  -10.6,  -11.2,  -11.3,  -12.0,  -12.2,   -3.1,    0.8,   -2.7,   -3.2,   -4.4,   -4.0,   -8.4,   -6.3,    1.4,   -2.0,  -10.2,   -6.1,  -21.6,  -14.1,  -13.9,  -13.5,  -13.2,   -9.2,  -10.3,   -7.3,  -10.5,  -10.6,  -10.4,  -10.7,  -10.3,  -11.1,  -14.3,  -14.3,  -24.5,   -9.5,  -16.3,  -23.2,  -10.9,  -27.4,  999.0,   -7.6,   -7.9,    2.0,    5.9,    5.3,    4.9,    4.6,    4.1,    4.3,    3.4,    4.8,    6.2,    5.2,    4.7,    4.8,    2.9,    1.4,    5.1,    0.4,   -0.1,   -1.1,   -0.1,  999.0,   -2.1,   -2.3,   -2.5,   -2.5,   -3.3,   -3.9,   -5.4,   -6.4,   -9.1,   -5.6,   -8.4,   -6.0,   -4.0,  999.0,  999.0,  999.0,  999.0,  999.0,  999.0,  999.0,  999.0,  999.0,  999.0,  999.0,  999.0,  999.0,  999.0
2009/10/31 11:10,    3.6,    3.4,    3.4,    3.3,    3.2,    2.8,    2.9,    2.2,    2.3,    2.3,    2.4,    1.7,    1.1,    1.3,    1.1,   -0.1,    0.0,    0.2,   -0.2,   -1.7,   -1.4,   -1.2,   -0.8,   -0.7,   -0.1,   -0.3,   -0.7,   -0.6,   -0.4,    0.0,    0.1,   -0.1,    0.4,    0.6,    1.1,    1.6,    1.0,   -0.1,    0.0,   -0.9,   -1.0,   -2.1,   -2.6,  999.0,   -5.0,   -4.9,   -4.6,   -4.1,   -4.1,   -2.3,   -1.8,   -1.1,   -2.2,   -0.3,    1.0,    1.7,    1.6,    4.2,    3.3,    2.7,    4.6,    4.8,    6.4,    4.7,    4.4,    4.0,    4.4,    6.9,  999.0,  999.0,  999.0,  999.0,  999.0,  999.0,  999.0,  999.0,  999.0,  999.0,  999.0,  999.0,  999.0,  999.0,  999.0,  999.0,  999.0,  999.0,  999.0,  999.0,  999.0,  999.0,  999.0,  999.0,  999.0,  999.0,  999.0,  999.0,  999.0,  999.0
2009/10/31 11:20,  999.0,    3.1,    1.7,    2.7,    3.1,    2.6,    1.7,    1.6,    0.9,   -0.1,    1.2,    0.9,    0.3,    0.3,    0.1,   -0.4,   -0.2,    0.2,    1.0,    1.8,    2.1,    1.2,    1.8,    1.7,    2.0,    1.3,    0.4,   -0.7,   -0.9,   -0.3,    0.9,    1.4,    1.6,    1.9,    2.3,    2.0,  999.0,  999.0,    3.9,    4.8,    4.3,    4.6,    5.1,    4.9,    4.2,    4.7,    4.6,    3.7,    2.7,    2.4,    2.5,  999.0,  999.0,  999.0,    2.1,    2.2,    3.0,    4.1,    4.5,    4.4,    4.0,    3.6,    3.3,    3.3,    3.0,    2.8,    2.9,    2.4,    1.5,  999.0,  999.0,  999.0,  999.0,  999.0,  999.0,    0.4,  999.0,  999.0,  999.0,  999.0,  999.0,    0.9,    1.1,  999.0,  999.0,  999.0,  999.0,  999.0,  999.0,  999.0,  999.0,  999.0,  999.0,  999.0,  999.0,  999.0,  999.0,  999.0
2009/10/31 11:30,    0.4,    2.0,    2.4,    2.5,    2.8,    2.4,    1.8,    1.6,    1.2,    0.5,    0.9,  999.0,  999.0,  999.0,  999.0,  999.0,  999.0,  999.0,  999.0,   -0.0,    3.3,    4.0,    4.2,    1.0,    0.7,    0.4,   -0.2,    1.5,    2.1,    2.1,    1.5,    1.4,    2.6,    3.4,    5.4,    7.2,   11.5,    9.0,    8.3,    9.1,    7.5,    7.9,    5.4,    6.2,    4.9,    4.1,    3.5,    3.9,    3.9,    4.4,    4.4,    3.7,    3.4,    3.5,    3.0,    2.1,    1.1,    0.4,    1.1,    3.4,    3.8,    3.9,    3.6,    3.0,    2.4,    2.0,    3.0,  999.0,  999.0,  999.0,  999.0,  999.0,   -1.4,   -0.8,   -1.3,   -1.1,   -0.6,   -0.5,   -0.1,    0.7,    1.4,    2.0,    2.7,    2.8,  999.0,  999.0,  999.0,  999.0,  999.0,  999.0,  999.0,  999.0,  999.0,  999.0,  999.0,  999.0,  999.0,  999.0
2009/10/31 11:40,    0.3,    1.2,    2.7,    2.7,    2.3,    1.9,    2.1,    1.7,    0.4,    0.5,    0.9,    1.4,    1.2,    1.1,    1.1,  999.0,  999.0,  999.0,  999.0,  999.0,  999.0,   10.6,    9.2,    6.7,    7.9,    7.5,    7.3,    7.2,    7.1,    7.0,    7.4,    7.4,    7.3,    7.6,    7.6,    7.1,   10.9,   11.6,   12.5,    9.5,    8.8,    8.9,    8.5,    6.4,    6.5,  999.0,    2.1,    2.0,    1.1,    0.6,    2.1,    0.7,    0.8,    0.3,    0.5,    0.7,   -0.1,    0.2,    1.3,    2.2,    2.9,    2.9,    2.2,    1.9,  999.0,  999.0,  999.0,    2.7,  999.0,  999.0,  999.0,  999.0,   -1.1,   -0.6,   -0.3,   -0.2,  999.0,    0.1,   -0.2,    0.8,    1.0,    1.3,    1.8,    1.7,    1.7,  999.0,  999.0,  999.0,  999.0,  999.0,  999.0,  999.0,  999.0,  999.0,  999.0,  999.0,  999.0,  999.0
2009/10/31 11:50,    1.0,    3.1,    3.3,    3.0,    3.0,  999.0,    1.7,    1.1,    1.1,    0.9,    1.0,    0.9,    1.3,    1.2,    1.2,    1.2,    1.2,    1.0,    0.7,    0.4,    0.2,    0.3,    0.4,   -0.1,   -0.4,   -0.4,   -0.7,   -1.0,   -1.4,   -1.5,   -2.3,   -1.7,   -1.5,   -1.2,   -1.0,   -0.5,   -0.1,   -0.4,   -0.9,   -0.0,    0.3,   -0.1,    1.0,    1.2,    1.2,    1.1,    1.0,    0.7,    0.5,   -0.1,   -0.9,   -1.1,   -1.4,    1.0,    1.2,    0.9,    1.1,    1.8,    2.1,    3.2,  999.0,    2.1,    1.8,    0.3,   -0.3,   -1.0,   -0.7,   -0.9,  999.0,  999.0,  999.0,  999.0,  999.0,  999.0,  999.0,  999.0,  999.0,  999.0,  999.0,    0.5,  999.0,  999.0,  999.0,  999.0,  999.0,  999.0,  999.0,  999.0,  999.0,  999.0,  999.0,    1.4,    1.2,    1.1,    1.8,    1.4,    1.9,    2.0
2009/10/31 12:00,  999.0,    2.6,    1.9,    1.1,    1.0,    0.9,    0.7,    0.8,    0.8,    0.7,    1.0,    1.0,    1.3,    1.3,    1.5,    1.7,    1.8,    1.7,    1.4,    1.4,    1.4,    1.5,    1.4,    1.3,    1.2,    0.6,   -0.3,   -0.5,   -0.1,   -0.2,   -0.6,   -0.6,   -0.2,   -0.3,   -0.2,   -0.3,    0.2,    0.6,   -0.5,   -0.9,   -0.7,    0.2,    0.6,    0.7,    0.2,   -0.1,   -0.3,    0.1,   -0.3,   -0.4,   -0.4,   -0.4,   -0.7,   -1.7,   -1.4,   -1.1,   -0.9,   -0.5,   -0.1,   -0.6,    0.5,    0.8,   -0.1,   -0.1,   -0.5,   -1.0,   -1.2,  999.0,  999.0,  999.0,  999.0,  999.0,  999.0,  999.0,  999.0,  999.0,  999.0,  999.0,  999.0,  999.0,   -1.2,   -0.6,   -0.4,    0.4,    1.9,    2.3,    2.9,    3.8,    3.5,    2.2,  999.0,  999.0,    0.6,    0.1,    0.4,   -0.5,   -0.1,  999.0
2009/10/31 12:10,    0.1,  999.0,    2.0,    0.9,    1.5,    0.8,    0.6,    0.3,    0.6,    0.9,    1.3,    1.3,    1.4,    1.2,    1.2,    1.2,    1.4,    1.3,    1.8,    1.7,    1.6,    1.6,    1.4,    1.4,    1.3,    0.7,    0.2,   -0.3,   -0.7,   -0.6,   -0.9,   -0.7,   -0.4,   -0.3,   -0.4,   -0.3,   -0.7,   -0.2,    0.1,   -0.4,   -0.7,   -0.9,   -0.5,   -0.5,   -0.4,   -1.1,   -1.3,   -0.8,   -0.4,   -1.0,   -1.3,   -1.1,   -0.9,   -0.4,   -0.6,   -0.5,   -0.5,    0.3,    1.3,    0.9,    0.8,    0.5,    0.2,    0.3,   -0.1,  999.0,  999.0,  999.0,  999.0,  999.0,  999.0,    1.5,  999.0,    0.2,   -0.2,   -0.3,   -0.6,   -0.9,   -1.7,   -2.1,   -2.7,   -2.1,   -1.2,   -0.1,    0.9,  999.0,  999.0,    2.4,    1.8,    1.1,   -0.0,   -0.4,   -0.7,   -0.8,   -1.0,   -1.0,   -1.3,   -1.8
2009/10/31 12:20,    1.0,    3.9,    2.6,    2.6,    1.7,    1.7,    1.1,    0.8,    0.3,    0.3,    0.5,    0.5,    0.5,    0.4,    0.7,    0.9,    1.0,    0.5,   -0.1,    0.0,    0.4,    0.6,    0.9,    0.9,    0.9,    0.5,    0.5,    0.4,   -0.2,   -0.5,   -0.1,   -0.5,   -0.3,    0.9,    1.1,    1.1,    1.3,    0.9,    0.2,    0.6,    0.1,   -0.6,   -0.5,   -0.1,    0.0,   -0.4,   -0.5,    0.1,    0.2,   -0.2,   -0.3,   -0.1,   -0.1,    0.1,    0.0,   -0.1,   -0.3,   -0.3,  999.0,  999.0,  999.0,  999.0,    3.8,    4.4,  999.0,  999.0,  999.0,   -0.5,    1.2,    0.9,    0.6,   -0.2,   -0.5,   -0.6,   -0.8,   -0.9,   -0.9,   -1.5,   -1.6,   -1.6,   -1.3,   -0.3,    0.6,    2.0,    3.1,    3.5,    3.7,    2.4,    1.3,    0.4,   -0.3,   -0.6,   -1.2,   -1.9,   -1.8,   -1.6,   -2.5,   -3.3
2009/10/31 12:30,    0.9,    2.8,    3.0,    2.6,    2.1,    1.5,    1.6,    1.7,    1.9,    1.9,    1.9,    1.6,    1.5,    1.5,    1.8,    1.8,    1.7,    1.2,    0.6,    0.5,    0.4,    0.0,    0.0,    0.1,    0.2,    0.1,    0.0,   -0.8,   -1.4,   -1.4,   -1.2,   -0.9,   -0.6,    0.6,    1.0,    1.3,    0.6,    0.5,   -0.3,   -1.1,   -1.3,   -1.3,   -1.4,   -1.2,   -0.7,   -1.1,   -1.1,   -1.4,   -0.9,   -1.0,   -0.7,   -0.5,   -0.5,   -0.8,   -0.7,   -0.5,   -0.9,   -1.3,   -0.8,  999.0,  999.0,  999.0,  999.0,  999.0,  999.0,  999.0,    0.9,    1.1,    1.1,    1.0,    0.7,   -0.0,   -0.2,   -0.4,   -0.6,   -1.0,   -1.3,   -1.2,   -1.1,   -0.9,   -0.5,   -0.0,    1.1,    2.3,    2.5,  999.0,   -0.2,    0.1,   -0.0,   -0.1,   -0.3,   -0.9,   -1.5,   -1.8,   -2.0,   -2.2,   -2.2,   -2.4
2009/10/31 12:40,    0.5,    0.5,    2.4,    2.0,    1.7,    1.9,    2.0,    1.9,    2.2,    2.1,    2.1,    1.9,    1.7,    1.5,    1.4,    1.7,    2.1,    2.5,    2.6,    2.6,    1.9,    0.8,    0.6,    0.3,    0.3,   -0.1,   -0.7,   -1.4,   -1.6,   -1.7,   -2.0,   -1.1,   -1.2,   -0.7,    0.1,    0.6,    0.7,    0.3,   -0.1,   -0.7,   -1.0,   -0.9,   -1.2,   -1.2,   -1.1,   -0.9,   -1.2,   -1.0,   -1.5,   -1.3,   -1.3,   -1.4,   -1.0,   -1.4,   -1.5,  999.0,  999.0,   -2.0,   -3.0,  999.0,   -0.3,   -0.1,    0.2,    0.2,    0.3,    0.4,    0.9,    0.9,    0.2,    0.1,   -0.1,   -0.7,   -0.7,   -1.0,   -0.8,   -0.8,   -0.6,   -0.4,   -0.4,   -0.0,   -0.0,    0.7,    1.2,    0.8,    0.7,    0.8,    0.2,   -0.3,   -0.3,   -0.5,   -0.7,   -1.0,   -1.1,   -1.3,   -1.5,   -1.8,   -1.7,   -1.6
2009/10/31 12:50,    1.2,    0.5,    2.1,    1.6,    1.0,    0.9,    1.0,    1.1,    1.3,    1.4,    1.4,    1.2,    1.5,    1.6,    1.5,    1.8,    1.8,    1.8,    2.2,    2.5,    2.5,    1.6,    0.9,    0.3,   -0.0,   -0.2,   -0.4,   -0.4,   -0.6,   -0.5,   -1.3,   -1.0,   -1.1,   -1.1,   -0.7,    0.4,    0.6,    0.5,   -0.5,   -0.0,    0.6,    0.1,   -0.0,   -0.3,   -0.5,   -0.6,   -1.2,  999.0,  999.0,   -1.8,   -2.0,   -2.1,   -1.3,   -0.8,   -1.3,    0.1,    0.3,  999.0,   -0.9,   -0.3,    0.3,    0.2,    0.4,  999.0,  999.0,  999.0,  999.0,  999.0,   -1.7,  999.0,  999.0,  999.0,  999.0,  999.0,   -0.3,   -0.3,   -0.4,   -0.5,   -0.3,   -0.2,   -0.1,    0.2,    0.8,    0.9,    2.0,    1.4,    1.6,    1.1,    0.8,    0.4,    0.1,   -0.4,   -0.8,   -1.3,   -2.0,   -2.1,   -2.0,   -1.9
2009/10/31 13:00,    1.1,    2.3,    3.0,    2.1,    0.8,    0.8,    0.9,    1.2,    1.8,    1.6,    1.4,    1.5,    1.7,    2.2,    2.4,    2.7,    2.4,    2.4,    2.2,    2.4,    2.0,    2.1,    1.5,    0.9,    1.0,    1.0,    0.9,    0.6,    0.5,   -0.4,   -1.2,   -1.3,   -1.8,   -1.8,   -1.0,   -0.2,    0.7,   -0.2,   -0.5,   -1.1,   -0.3,    0.4,    0.2,    0.5,    0.1,   -0.3,   -0.6,   -0.9,    0.3,   -1.0,   -1.7,   -2.1,   -1.5,   -1.5,   -0.8,   -1.5,   -1.1,   -0.6,  999.0,    0.2,  999.0,  999.0,  999.0,  999.0,   -5.2,   -4.7,  999.0,  999.0,  999.0,  999.0,  999.0,    0.8,    1.0,    0.7,    0.7,    0.6,    0.1,   -0.1,    0.4,    0.4,    0.6,    0.2,    0.5,    1.3,    1.8,    2.2,    2.1,    1.6,    1.3,    1.2,    1.0,    0.6,    0.3,   -0.3,   -0.5,   -0.5,   -0.3,    0.2
2009/10/31 13:10,  999.0,  999.0,    3.1,    2.6,    2.0,    1.7,    1.8,    2.2,    2.0,    1.9,    2.1,    2.2,    2.0,  999.0,    1.9,    1.9,    1.7,    1.4,    1.1,    0.9,    0.3,    0.3,    0.2,    0.1,   -0.8,   -0.5,   -0.5,   -0.5,   -0.9,   -1.4,   -1.6,   -1.5,   -1.8,   -1.9,   -1.6,   -0.5,   -0.2,   -0.3,   -0.9,   -0.5,    0.3,    0.5,    0.3,    0.2,    0.2,   -0.6,   -1.5,  999.0,  999.0,   -2.1,   -2.9,  999.0,   -2.7,   -2.1,  999.0,  999.0,  999.0,  999.0,   -7.6,   -6.5,  999.0,  999.0,  999.0,  999.0,    0.1,    0.4,    0.6,    1.3,    1.5,    1.8,    1.3,    1.0,    1.3,    1.6,    1.5,    1.4,    1.1,    0.9,    0.7,    0.4,   -0.1,   -0.5,   -0.2,    0.5,    1.1,    1.4,    1.5,    1.4,    1.2,    0.9,    0.6,    0.4,    0.3,    0.1,   -0.3,   -0.7,   -0.8,   -0.6
2009/10/31 13:20,    1.0,  999.0,    3.9,    3.3,    2.7,    2.0,    2.0,    2.2,    2.3,    1.9,    2.1,    2.2,    1.3,    0.8,    1.1,    1.4,    1.1,    0.9,    0.7,    0.8,    0.9,    1.1,    1.1,    1.2,    0.9,    0.8,    0.4,   -0.4,   -1.0,   -1.3,   -1.5,   -1.2,   -1.0,   -1.0,   -1.2,   -1.0,   -0.4,    0.3,    0.5,    0.4,   -0.1,   -0.0,    0.1,   -0.4,   -0.7,   -1.2,   -1.0,   -1.1,   -1.7,   -1.8,   -2.0,   -1.7,   -1.2,   -1.0,   -1.6,  999.0,  999.0,  999.0,    0.8,  999.0,    0.9,    0.7,    0.6,    0.6,    0.6,    0.6,    0.7,    0.8,    0.9,    0.9,    1.0,    0.9,    0.7,    0.4,    0.3,    0.0,   -0.2,   -0.3,   -0.5,   -0.7,   -0.9,   -1.1,   -1.1,   -0.5,    0.0,    0.1,    0.2,   -0.0,   -0.5,   -0.6,   -0.6,   -0.4,   -0.3,   -0.0,   -0.1,   -0.2,   -0.1,   -0.2
2009/10/31 13:30,  999.0,  999.0,  999.0,  999.0,    3.0,    2.1,    2.1,    2.0,    2.3,    2.4,    2.6,    2.7,    2.2,    1.4,    0.8,    0.6,    0.2,    0.4,    0.7,    0.6,    1.2,    1.1,    1.1,    0.4,    0.5,   -0.1,   -0.0,   -0.2,   -0.1,   -0.3,   -0.6,   -0.9,   -1.0,   -0.7,   -1.0,   -0.9,   -0.3,    0.2,    0.7,    0.8,   -0.5,   -0.6,   -0.6,   -0.7,   -0.8,  999.0,   -0.4,   -0.7,   -0.5,   -1.4,   -1.7,   -1.1,    0.0,  999.0,  999.0,  999.0,  999.0,   -1.0,    0.2,    1.0,    1.1,    0.4,    0.1,    0.2,    0.3,    0.3,   -0.0,    0.1,    0.4,    0.5,    0.5,    0.1,    0.0,   -0.3,   -0.6,   -0.8,   -1.1,   -1.2,   -1.8,   -2.0,   -2.1,   -1.7,   -1.2,   -0.6,   -0.5,   -0.6,   -1.0,   -1.5,   -1.8,   -1.9,   -2.2,   -2.2,   -2.0,   -2.0,   -1.8,   -1.8,   -2.1,   -2.3
2009/10/31 13:40,  999.0,    1.7,    4.9,  999.0,    3.7,    3.4,    3.0,    2.8,    2.3,    2.6,    3.0,    2.9,    2.7,    2.1,    1.9,    1.7,    1.1,    1.4,    1.4,    1.7,    1.7,    1.4,    1.1,    0.7,    0.8,   -0.0,   -0.4,    0.1,    0.6,    0.6,   -0.8,   -1.1,   -1.2,   -1.5,   -1.5,   -0.5,   -0.8,   -0.0,  999.0,    0.8,    0.4,   -1.2,   -0.6,   -1.1,   -0.7,  999.0,   -1.0,   -1.1,   -1.2,   -1.5,   -1.9,   -1.9,  999.0,  999.0,  999.0,  999.0,   -1.4,   -1.9,   -1.7,   -0.9,   -0.3,   -0.4,   -0.6,   -0.6,   -0.6,   -0.7,   -0.6,   -0.2,   -0.2,   -0.5,   -0.6,   -0.3,   -0.1,   -0.1,   -0.3,   -0.5,   -0.5,   -0.6,   -0.8,   -0.7,   -0.7,   -0.2,    0.1,    0.1,   -0.1,   -0.6,   -0.8,   -1.1,   -1.3,   -1.5,   -1.6,   -1.5,   -1.5,   -1.4,   -1.4,   -1.5,   -1.7,   -1.9
2009/10/31 13:50,  999.0,  999.0,  999.0,  999.0,  999.0,    4.1,  999.0,    3.5,    3.6,    4.2,    4.2,    3.9,    3.9,    3.5,    3.1,    2.7,    2.4,    2.5,    2.4,    2.2,    1.8,    1.2,  999.0,    0.4,   -0.2,   -0.3,   -0.2,   -0.4,    0.2,   -0.1,   -0.4,   -0.9,   -1.0,  999.0,  999.0,  -12.9,  999.0,  999.0,  999.0,  999.0,  999.0,  999.0,  999.0,  999.0,  999.0,   -7.7,  999.0,   -4.3,   -3.4,   -4.1,   -1.5,   -0.8,   -0.8,   -0.9,   -0.8,   -0.6,   -0.9,   -0.7,   -0.2,    0.2,   -0.1,   -0.4,   -0.7,   -0.6,   -0.6,   -0.5,   -0.6,   -0.8,   -0.7,   -0.5,   -0.5,   -0.1,    0.1,   -0.0,   -0.1,    0.3,    0.2,   -0.0,   -0.1,    0.2,    0.4,    0.6,    0.3,    0.2,   -0.3,   -0.8,   -1.2,   -1.6,   -1.6,   -1.7,   -1.7,   -1.8,   -1.5,   -1.3,   -1.2,   -1.2,   -1.3,   -1.2
2009/10/31 14:00,  999.0,  999.0,  999.0,  999.0,  999.0,  999.0,    4.0,    4.1,    4.8,    4.4,    6.9,    6.6,    5.4,    5.3,    3.6,    3.1,    3.1,    2.8,    3.1,    3.1,    2.4,    2.2,    1.9,    2.5,    2.4,    1.8,    2.0,    1.6,    1.5,    0.9,    0.8,    1.4,    0.6,    0.7,    1.1,    1.7,    2.2,    2.9,    2.1,    1.7,    1.2,   -0.6,  999.0,  999.0,  999.0,  999.0,  999.0,   -0.3,   -1.0,   -1.5,   -1.6,   -1.1,   -1.3,   -1.7,   -2.0,   -2.1,   -2.3,   -1.9,   -1.1,   -0.7,   -0.6,   -0.7,   -0.6,   -0.4,   -0.5,   -0.3,    0.0,    0.4,    0.5,    0.7,    0.9,    0.9,    0.6,    0.5,    0.3,   -0.0,   -0.2,   -0.2,    0.0,   -0.1,   -0.2,   -0.4,   -0.8,   -1.2,   -1.6,   -2.0,   -2.2,   -2.6,   -2.6,   -2.7,   -2.6,   -2.4,   -2.4,   -2.2,   -2.0,   -1.9,   -1.5,   -1.3
2009/10/31 14:10,    3.4,    5.7,    6.2,    5.4,    5.0,    2.8,    2.6,    2.9,    2.4,  999.0,    0.3,    0.2,    1.2,    1.4,    1.2,    2.4,    1.9,    1.8,    1.5,    0.7,    1.2,    0.8,    1.2,    1.0,    0.4,    0.5,    0.1,   -0.6,   -1.1,   -1.7,   -2.3,   -2.1,   -2.9,   -2.8,   -2.5,   -1.9,   -1.3,   -1.1,   -0.6,   -1.2,   -2.4,   -3.2,   -4.0,  999.0,  999.0,  999.0,   -0.7,   -1.4,   -1.3,   -0.7,   -0.3,    0.0,   -0.1,   -1.0,   -1.7,   -2.2,   -2.5,   -1.3,   -0.3,   -0.0,    0.0,    0.4,    0.6,    0.8,    1.1,    1.1,    1.3,    1.7,    1.9,    1.7,    1.1,    0.5,    0.2,   -0.3,   -0.4,   -0.7,   -0.4,   -0.0,   -0.0,   -0.1,   -0.3,   -0.5,   -0.8,   -1.2,   -1.6,   -1.8,   -2.0,   -2.1,   -2.2,   -2.3,   -2.1,   -1.9,   -1.6,   -1.4,   -1.1,   -0.8,   -0.7,   -0.7
2009/10/31 14:20,    3.3,  999.0,  999.0,  999.0,    4.3,    3.3,    2.3,    2.1,    2.5,    2.9,    3.0,    2.7,    2.4,    1.9,    2.2,    2.3,    2.1,    1.7,    1.2,    1.1,    0.9,    0.8,    0.7,    0.6,    0.7,    0.8,    0.7,    0.5,    0.3,   -0.1,   -0.2,   -0.7,   -1.4,   -1.3,   -1.3,   -0.8,   -0.5,   -0.2,    0.0,   -0.1,   -0.4,   -1.2,   -2.0,  999.0,  999.0,  999.0,  999.0,   -0.5,    0.4,    1.5,    0.9,    0.3,   -0.5,   -1.6,   -2.7,   -3.6,   -3.0,   -1.8,   -1.2,   -1.1,   -0.6,   -0.4,   -0.1,    0.2,    0.3,    0.5,    1.1,    1.2,    0.9,    0.3,   -0.2,   -0.5,   -0.4,   -0.5,   -0.6,   -0.8,   -0.7,   -0.3,   -0.1,   -0.1,   -0.3,   -0.4,   -0.8,   -1.2,   -1.5,   -1.7,   -1.8,   -1.9,   -2.0,   -1.7,   -1.3,   -1.0,   -0.5,   -0.1,    0.0,   -0.0,   -0.3,   -0.5
2009/10/31 14:30,    4.7,    6.2,    6.4,    6.0,    4.7,    3.9,    3.1,    2.9,    2.9,    2.9,    3.2,    2.9,    2.6,    2.3,    2.1,    2.1,    1.8,    1.2,    0.8,   -0.0,   -0.1,   -0.0,   -0.7,   -1.1,   -0.3,   -0.9,   -1.1,   -1.1,   -1.4,   -1.4,   -1.4,   -2.2,   -3.2,   -3.2,   -3.0,   -3.0,   -3.3,   -3.4,   -3.0,   -3.0,   -3.7,   -4.7,   -2.2,  999.0,  999.0,  999.0,  999.0,   -0.7,   -0.0,    0.2,    0.2,   -0.0,   -1.0,   -2.4,   -3.1,   -2.4,   -1.3,   -0.7,   -0.6,   -0.4,    0.3,    0.4,    0.5,    1.0,    1.6,    2.0,    2.1,    1.9,    1.6,    1.1,    0.6,    0.3,   -0.0,   -0.4,   -0.3,   -0.1,   -0.2,   -0.0,    0.3,    0.5,    0.6,    0.3,   -0.1,   -0.3,   -0.5,   -0.6,   -0.7,   -1.1,   -1.3,   -1.1,   -1.0,   -0.9,   -0.5,   -0.1,    0.2,   -0.0,   -0.6,   -0.9
2009/10/31 14:40,  999.0,  999.0,    5.3,    5.9,    4.8,    4.6,    3.1,    2.7,    2.4,    2.5,    2.6,    2.5,    2.6,    2.4,    1.8,    1.8,    1.5,    1.5,    1.2,    1.0,    1.2,    0.6,    0.2,    0.9,    0.8,    0.5,   -0.3,   -0.7,   -0.7,   -0.6,   -0.1,   -0.2,   -0.6,   -0.8,   -0.7,   -0.7,   -0.9,   -0.4,   -0.4,   -0.5,   -0.4,  999.0,  999.0,  999.0,  999.0,  999.0,   -1.3,   -0.6,   -0.7,   -0.7,   -0.3,   -0.6,   -1.9,   -2.8,   -2.5,   -1.5,   -1.0,   -0.8,   -0.9,   -0.9,   -0.5,   -0.3,    0.1,    0.6,    0.9,    1.1,    1.0,    0.8,    0.6,    0.0,   -0.4,   -0.5,   -0.8,   -1.2,   -1.4,   -1.2,   -0.5,   -0.0,    0.3,    0.5,    0.5,    0.2,   -0.2,   -0.5,   -0.9,   -1.2,   -1.3,   -1.3,   -1.3,   -1.4,   -1.7,   -2.0,   -1.8,   -1.4,   -1.0,   -1.2,   -1.4,   -2.0
2009/10/31 14:50,  999.0,    6.0,    6.6,    6.6,    6.6,    6.1,    4.7,    3.9,    3.4,    3.5,    3.6,    3.4,    3.1,    3.2,    3.3,    2.6,    2.2,    2.1,    1.6,    1.7,    2.0,    1.7,    1.3,    1.2,    0.5,    0.5,   -0.5,   -0.5,   -0.6,   -0.7,   -0.2,    0.0,   -0.3,   -0.8,   -1.2,   -1.0,   -1.1,   -0.9,   -1.2,   -0.3,  999.0,    2.9,  999.0,  999.0,  999.0,   -1.4,   -0.9,   -0.9,   -0.9,   -0.8,   -0.5,   -1.3,   -1.9,   -1.4,   -0.5,    0.0,    0.3,    0.3,    0.4,    0.7,    0.9,    1.0,    1.2,    1.2,    1.1,    0.7,    0.2,   -0.1,   -0.4,   -0.7,   -0.7,   -0.4,   -0.2,    0.1,    0.4,    0.3,   -0.1,   -0.2,    0.0,    0.3,    0.2,   -0.0,   -0.3,   -0.7,   -1.2,   -1.3,   -1.4,   -1.5,   -1.6,   -1.6,   -1.7,   -2.2,   -2.5,   -2.2,   -1.9,   -1.6,   -1.4,   -1.7
2009/10/31 15:00,    3.3,    5.6,    6.3,    5.4,    5.7,    4.8,    3.8,    3.1,    3.1,    3.4,    3.6,    3.6,    3.1,    3.0,    2.7,    2.1,    2.3,    2.3,    2.0,    1.4,    1.3,    0.9,    0.3,    0.2,    0.1,   -0.4,   -0.9,   -1.0,   -1.0,   -0.8,   -1.3,   -1.3,   -0.0,   -1.2,   -2.2,   -2.4,   -2.4,   -2.6,   -2.8,   -2.8,  999.0,  999.0,  999.0,  999.0,   -1.5,   -0.4,    0.6,    0.5,    0.1,   -0.7,   -1.2,   -1.5,   -0.9,    0.0,    0.9,    1.2,    1.1,    1.2,    1.4,    1.6,    1.8,    1.5,    1.7,    1.6,    1.5,    0.9,    0.4,    0.1,   -0.2,   -0.0,    0.2,    0.2,    0.0,   -0.3,    0.0,    0.3,    0.3,    0.1,   -0.1,   -0.1,   -0.0,    0.2,    0.1,   -0.3,   -0.5,   -0.6,   -0.6,   -0.6,   -0.6,   -0.7,   -1.0,   -1.6,   -1.8,   -1.7,   -1.4,   -1.3,   -1.2,   -1.8
2009/10/31 15:10,    2.3,    4.3,    5.2,    5.4,    5.2,    4.5,    3.5,    3.4,    3.3,    3.3,    2.8,    2.9,    2.5,    2.3,    1.5,    1.5,    1.2,    1.5,    1.5,    1.1,    1.0,    0.6,   -0.3,   -0.6,   -1.2,   -2.3,   -2.3,   -2.4,   -2.6,   -2.3,   -2.6,   -3.0,   -2.7,   -2.2,   -2.7,   -3.2,   -3.0,   -3.0,  999.0,  999.0,  999.0,  999.0,  999.0,  999.0,   -1.5,    0.1,    1.2,    0.6,    0.2,   -0.5,   -1.3,   -0.9,   -0.6,    0.1,    1.0,    1.6,    1.5,    1.4,    1.9,    2.0,    1.8,    1.9,    1.9,    2.2,    2.3,    2.0,    1.8,    1.7,    1.7,    1.8,    1.8,    1.7,    1.1,    0.9,    1.0,    1.1,    1.2,    1.2,    1.0,    0.8,    0.9,    0.9,    0.7,    0.5,    0.3,    0.1,    0.2,    0.3,    0.2,   -0.2,   -1.0,   -1.5,   -1.5,   -1.4,   -1.4,   -1.5,   -2.0,   -2.5
2009/10/31 15:20,    1.7,    3.6,    4.4,    4.7,    5.1,    4.1,    3.9,    3.6,    3.6,    3.9,    3.2,    3.1,    3.0,    3.4,    4.1,    4.0,    4.3,    4.1,    3.4,    3.5,    3.3,    3.3,    3.0,    2.6,    2.5,    1.4,   -0.2,   -1.5,   -1.4,   -1.7,   -2.9,   -3.0,   -4.6,  999.0,   -2.7,   -1.5,   -0.3,   -1.7,   -3.5,   -3.7,  999.0,  999.0,   -3.0,  999.0,  999.0,   -0.1,   -0.2,   -0.5,   -0.0,   -0.2,    0.3,    0.5,    0.6,    1.2,    2.1,    2.5,    2.1,    1.9,    2.1,    2.4,    2.0,    1.7,    1.5,    1.7,    1.9,    2.3,    2.4,    2.4,    2.5,    2.5,    2.5,    2.5,    2.2,    1.6,    1.3,    1.5,    1.8,    1.6,    1.4,    1.3,    1.4,    1.4,    1.0,    0.7,    0.6,    0.4,    0.3,    0.2,   -0.0,   -0.3,   -0.6,   -0.8,   -0.9,   -1.0,   -1.1,   -1.3,   -1.8,   -2.4
2009/10/31 15:30,    1.2,    3.3,    3.2,    3.8,    3.7,    3.0,    1.9,    5.1,    4.4,    3.9,    3.8,   -1.1,    0.7,    0.3,    2.4,    2.4,    1.5,    1.5,    1.5,    1.1,   -0.0,   -0.6,   -0.7,   -0.7,   -0.4,    0.0,   -0.4,   -1.3,   -1.8,   -1.7,   -2.5,   -1.9,   -1.7,   -2.0,   -2.3,   -2.5,   -2.9,   -3.0,   -2.9,   -4.6,  999.0,  999.0,   -4.3,  999.0,    0.4,    1.0,    0.3,   -0.1,    0.4,    0.3,    0.1,    0.1,    0.6,    1.1,    2.7,    2.4,    2.1,    2.4,    2.6,    2.2,    1.6,    1.1,    0.8,    1.0,    1.5,    1.9,    2.2,    2.6,    2.9,    3.2,    3.2,    3.2,    2.7,    2.1,    1.8,    1.8,    2.0,    2.2,    2.1,    1.6,    1.1,    0.8,    0.7,    0.5,    0.2,    0.1,    0.2,    0.3,    0.2,    0.0,   -0.2,   -0.2,   -0.2,   -0.1,    0.0,    0.1,   -0.2,   -0.9
2009/10/31 15:40,  999.0,   -3.8,   -3.8,  999.0,   -9.2,   -6.5,   -6.6,   -7.7,   -7.5,   -7.8,   -7.5,   -5.1,   -5.8,   -4.2,    2.0,  999.0,    0.2,   -0.3,   -0.1,   -0.5,   -0.8,   -1.8,   -2.3,   -3.2,   -2.6,   -2.2,   -2.1,   -2.0,   -2.5,   -2.9,   -3.5,   -3.0,   -3.6,   -3.5,   -4.1,   -3.9,   -3.9,   -3.3,  999.0,  999.0,   -6.5,   -6.7,  999.0,   -2.4,   -2.7,   -1.8,   -0.9,    0.1,    1.0,    2.0,    1.9,    1.9,    2.0,    2.1,    2.1,    2.1,    2.2,    2.3,    2.1,    1.6,    1.0,    0.6,    0.2,    0.3,    0.8,    1.4,    1.9,    2.2,    2.8,    3.3,    3.2,    3.0,    2.6,    2.5,    2.6,    3.2,    3.5,    3.3,    2.8,    2.5,    2.4,    2.3,    1.7,    1.3,    1.1,    1.0,    1.1,    1.1,    0.9,    0.5,    0.1,   -0.2,   -0.2,   -0.0,    0.2,    0.5,    0.3,    0.0
2009/10/31 15:50,  999.0,   -1.0,   -0.7,    2.7,    2.4,    1.1,    2.5,    3.0,    1.3,    0.6,    3.0,    0.4,    2.7,    2.5,    2.4,    1.4,    1.0,    0.9,    0.3,   -0.3,   -1.5,   -2.0,   -2.2,   -3.0,   -3.6,   -3.5,   -3.1,   -2.5,   -2.8,   -3.0,   -2.9,   -3.4,   -3.7,   -4.1,   -4.2,   -3.8,   -3.0,   -3.7,   -5.6,   -6.4,  999.0,  999.0,  999.0,   -3.3,   -2.6,  999.0,  999.0,   -1.1,    0.3,    0.9,    1.6,    1.8,    2.2,    2.2,    1.9,    1.9,    2.0,    2.1,    2.2,    2.0,    1.4,    1.1,    1.2,    1.7,    2.1,    2.4,    3.3,    4.2,    4.9,    5.1,    4.2,    3.6,    3.7,    4.2,    4.4,    4.0,    4.0,    4.6,    4.6,    4.0,    3.6,    3.5,    2.6,    1.8,    1.3,    1.2,    1.1,    1.0,    0.5,   -0.4,   -1.0,   -0.9,   -0.5,   -0.2,   -0.1,   -0.3,   -0.6,   -1.1
2009/10/31 16:00,  999.0,   -0.1,    1.2,    2.7,    3.0,    3.3,    3.3,    2.9,    1.7,   -0.6,    1.6,   -1.7,    1.6,    1.5,    1.2,    0.6,    1.2,    1.0,   -0.5,   -0.5,   -1.5,   -2.1,   -2.7,   -2.4,   -1.7,   -2.0,   -2.3,   -2.8,   -2.8,   -3.4,   -4.6,   -5.2,   -5.9,   -6.2,   -5.9,   -5.9,   -6.1,   -5.8,  999.0,   -7.5,   -7.8,  999.0,  999.0,   -3.2,   -1.8,  999.0,    0.5,    1.0,    1.1,    1.6,    1.9,    2.3,    2.7,    2.6,    2.4,    2.5,    2.4,    2.6,    2.6,    2.2,    1.6,    1.4,    1.4,    1.3,    1.5,    1.9,    2.5,    3.5,    4.1,    4.4,    3.4,    3.0,    3.2,    3.6,    3.3,    2.9,    3.1,    3.4,    3.8,    3.7,    3.2,    2.7,    1.8,    1.5,    1.2,    0.9,    0.7,    0.6,    0.0,   -0.9,   -1.2,   -0.9,   -0.3,   -0.2,   -0.3,   -0.6,   -1.3,   -1.7
2009/10/31 16:10,   -1.9,   -1.3,    1.1,    0.8,    2.1,    3.0,    3.3,    3.3,    3.1,    2.2,    1.3,    0.6,  999.0,  999.0,  999.0,  999.0,  999.0,  999.0,  999.0,  999.0,  999.0,  999.0,  999.0,  999.0,  999.0,  999.0,  999.0,  999.0,  999.0,  999.0,   -9.0,  999.0,  999.0,  999.0,  999.0,  999.0,  999.0,  999.0,  999.0,  999.0,  999.0,  999.0,   -1.5,   -0.1,    0.8,    0.7,    0.7,    1.1,    1.7,    1.7,    1.6,    1.5,    1.8,    1.8,    1.8,    2.2,    2.0,    2.0,    1.9,    1.7,    1.0,    0.6,    0.7,    0.4,    0.5,    1.2,    1.8,    2.9,    3.5,    4.1,    3.6,    3.0,    3.2,    3.6,    3.3,    3.4,    3.9,    4.1,    4.0,    4.3,    4.1,    3.5,    3.1,    2.4,    1.9,    1.4,    0.9,    0.7,    0.3,   -0.5,   -1.3,   -1.2,   -0.8,   -0.4,   -0.4,   -0.9,   -1.7,   -2.2
2009/10/31 16:20,  999.0,   -7.2,   -6.5,   -6.2,   -5.8,   -6.9,  999.0,   -3.2,   -3.3,   -7.5,   -7.0,   -7.0,   -7.3,   -4.4,   -5.3,   -5.9,   -6.1,   -8.5,   -8.3,   -8.7,   -8.7,   -9.5,  999.0,  999.0,  999.0,   -5.2,   -5.9,  999.0,  999.0,  999.0,  999.0,  999.0,  999.0,  999.0,  999.0,  999.0,   -4.4,   -4.3,   -4.4,   -3.2,  999.0,  999.0,  999.0,   -0.6,    0.2,   -0.0,    0.7,    1.9,    2.1,    1.7,    1.3,    1.2,    1.6,    2.0,    2.2,    2.1,    1.9,    1.8,    1.7,    1.5,    1.1,    0.9,    0.9,    0.8,    0.9,    1.3,    1.8,    2.7,    3.2,    3.5,    3.1,    2.6,    2.9,    3.0,    2.6,    3.2,    4.1,    4.6,    4.4,    4.1,    3.5,    3.0,    2.4,    2.0,    1.7,    1.3,    0.7,    0.4,    0.3,   -0.2,   -1.0,   -1.5,   -1.1,   -0.5,   -0.1,   -0.4,   -0.9,   -1.3
2009/10/31 16:30,    0.1,    1.0,    1.1,  999.0,    2.8,    3.0,    3.2,    3.2,    3.2,    3.0,    2.7,    2.2,    2.8,    2.5,    1.8,    1.4,    0.6,    0.7,    0.8,  999.0,  999.0,   -0.3,   -1.4,   -2.6,   -2.7,   -2.7,   -2.3,   -3.2,   -2.6,   -1.3,   -3.0,   -2.8,   -2.9,   -3.8,   -4.2,   -4.5,   -5.0,   -4.7,   -4.3,   -3.5,   -2.5,  999.0,   -0.5,  999.0,  999.0,   -0.1,    1.7,    1.7,    1.8,    2.3,    1.7,    1.7,    2.2,    2.6,    3.2,    3.7,    4.0,    3.0,    3.2,    2.7,    2.3,    1.8,    1.6,    1.1,    1.1,    1.3,    1.9,    2.6,    3.0,    3.4,    2.8,    2.4,    2.5,    2.2,    1.8,    2.1,    3.1,    3.5,    3.1,    2.9,    2.4,    2.1,    1.5,    1.4,    1.3,    1.1,    0.9,    0.7,    0.4,    0.3,   -0.3,   -0.8,   -0.5,    0.2,    0.8,    0.7,    0.2,   -0.1
2009/10/31 16:40,    0.1,  999.0,    1.2,  999.0,    3.1,    3.1,    3.0,    2.5,    2.5,    2.4,    1.9,    1.8,    2.0,    1.9,    1.7,    1.4,    1.2,    1.0,    0.6,   -0.1,   -0.1,    0.1,   -0.7,   -1.6,   -1.6,   -1.4,   -1.4,   -2.1,   -2.3,   -2.9,   -3.1,   -3.6,   -3.6,   -4.1,   -4.1,   -3.8,   -4.0,   -4.1,   -3.4,   -2.5,   -2.4,  999.0,  999.0,  999.0,  999.0,  999.0,    0.8,    0.6,    0.8,    1.4,    1.6,    2.0,    2.4,    2.5,    2.8,    3.4,    3.7,    3.3,    3.1,    2.8,    2.5,    2.0,    1.6,    1.2,    0.8,    0.8,    0.9,    1.5,    2.1,    2.6,    2.7,    2.5,    2.2,    1.9,    1.5,    1.6,    2.3,    3.5,    3.6,    3.4,    3.2,    2.7,    2.2,    2.1,    2.0,    1.7,    1.8,    1.6,    1.2,    0.7,   -0.1,   -0.1,    0.3,    0.7,    0.8,    0.7,    0.1,   -0.4
2009/10/31 16:50,   -0.0,    0.6,    0.7,  999.0,    2.8,    2.9,    2.7,    2.1,    2.3,    1.9,    1.5,    1.5,    1.2,    1.3,    1.5,    1.3,    1.0,    0.8,    0.9,   -0.1,   -0.3,   -0.4,   -0.9,   -1.8,   -1.5,   -1.7,   -1.8,   -2.0,   -2.3,   -2.6,   -3.0,   -3.6,   -3.6,  999.0,  999.0,   -2.8,   -3.2,   -3.1,   -2.4,   -1.4,  999.0,  999.0,   -4.9,   -4.8,   -3.0,    0.1,    1.2,    1.2,    1.2,    1.6,    2.2,    2.7,    2.7,    2.4,    2.4,    2.8,    3.0,    2.5,    2.3,    2.0,    1.9,    1.6,    1.1,    0.7,    0.4,    0.5,    0.6,    1.0,    1.7,    2.4,    2.8,    3.0,    2.7,    2.6,    2.2,    2.1,    2.7,    3.8,    4.0,    4.0,    3.8,    3.3,    2.9,    2.4,    2.0,    1.7,    1.5,    1.2,    0.6,   -0.1,   -0.8,   -0.7,   -0.6,   -0.4,   -0.3,   -0.4,   -0.8,   -1.1
2009/10/31 17:00,  999.0,   -1.8,   -1.6,   -0.9,   -1.2,    0.8,    1.4,    1.0,    1.4,    0.6,   -0.6,   -2.5,    0.2,   -2.9,   -0.8,   -0.8,    1.1,   -1.8,   -3.1,    0.2,    0.1,   -0.3,   -1.1,   -2.0,   -3.6,   -3.8,   -4.2,   -4.7,   -7.0,   -6.6,   -7.5,   -6.5,   -5.3,  999.0,  999.0,  999.0,  999.0,  999.0,  999.0,  999.0,   -8.4,   -7.2,  999.0,  999.0,  999.0,   -0.4,   -0.6,    0.1,   -0.2,    0.7,    1.2,    2.2,    2.4,    2.2,    2.5,    2.8,    3.2,    2.9,    2.3,    2.0,    1.9,    2.0,    1.9,    1.7,    1.7,    1.7,    1.8,    2.2,    3.0,    3.5,    3.7,    3.7,    3.4,    3.0,    2.5,    2.5,    3.1,    3.9,    4.1,    3.8,    3.5,    3.1,    2.6,    2.0,    1.5,    1.3,    0.9,    0.7,    0.1,   -0.3,   -1.0,   -1.3,   -1.2,   -0.8,   -0.2,   -0.1,   -0.2,   -0.4
2009/10/31 17:10,   -0.6,    0.4,    0.4,    0.8,    1.1,    1.6,    1.8,    1.7,    0.9,    0.9,    0.8,    0.0,   -0.4,   -1.0,   -0.6,   -1.0,   -0.7,   -0.7,   -0.9,   -1.9,   -2.5,   -2.9,   -2.5,   -3.2,   -3.9,   -4.1,   -4.1,   -5.1,   -5.3,   -6.1,   -7.4,   -5.3,   -4.7,   -4.3,   -4.7,  999.0,  999.0,  999.0,  999.0,  999.0,  999.0,  999.0,   -8.7,   -7.4,   -5.5,  999.0,  999.0,   -1.0,   -0.5,    0.0,    1.0,    2.3,    2.6,    3.0,    3.3,    3.4,    4.1,    3.9,    3.3,    2.4,    1.8,    1.8,    1.8,    1.6,    1.5,    1.5,    1.4,    2.0,    2.9,    3.3,    3.2,    3.3,    3.4,    3.1,    2.9,    3.0,    3.5,    4.0,    4.1,    4.1,    3.4,    2.9,    2.4,    2.2,    1.8,    1.6,    1.5,    1.2,    0.8,    0.3,   -0.4,   -1.0,   -1.2,   -1.2,   -0.9,   -0.6,   -0.3,   -0.4
2009/10/31 17:20,  999.0,    0.8,    0.1,    0.5,    1.3,    2.1,    1.6,    1.3,    1.1,    0.6,   -0.2,    0.0,   -0.3,   -0.0,    0.1,    0.7,    0.4,    0.3,    0.2,   -0.3,   -1.3,   -1.4,   -2.1,   -3.3,   -3.3,   -3.9,   -4.0,   -4.7,   -5.5,   -6.5,   -6.6,   -6.3,   -4.9,   -4.5,   -5.0,   -5.2,   -5.1,   -6.3,   -6.4,  999.0,   -6.9,   -6.7,  999.0,  999.0,  999.0,   -2.8,  999.0,  999.0,  999.0,    0.4,    0.8,    1.9,    2.6,    2.9,    3.4,    3.7,    4.2,    4.1,    3.2,    2.7,    2.3,    2.0,    1.7,    1.6,    1.7,    1.8,    1.6,    2.1,    3.1,    3.6,    3.6,    3.6,    3.7,    3.7,    3.7,    3.8,    4.0,    3.9,    3.9,    3.6,    3.1,    2.9,    2.5,    2.3,    2.0,    1.6,    1.3,    1.0,    0.6,   -0.2,   -0.6,   -1.1,   -1.4,   -1.4,   -1.2,   -0.7,   -0.4,   -0.4
2009/10/31 17:30,    0.1,    0.3,   -0.5,    0.6,    1.3,    1.3,    1.3,    0.4,   -0.2,   -0.3,   -0.4,   -0.6,   -0.8,   -0.5,   -1.1,   -1.1,   -1.0,   -1.1,   -1.2,   -1.6,   -1.9,   -2.3,   -3.2,   -3.9,   -4.8,   -3.9,   -3.6,   -3.7,   -4.1,   -4.5,   -4.6,   -4.3,   -4.1,   -4.6,   -5.4,   -5.1,   -6.2,   -6.3,   -6.7,   -6.5,   -6.9,   -6.7,   -6.1,   -4.7,   -4.2,   -3.3,  999.0,  999.0,  999.0,  999.0,  999.0,    1.4,    2.1,    2.2,    2.7,    3.2,    3.5,    3.8,    3.0,    2.4,    2.3,    2.0,    1.7,    1.8,    2.1,    2.0,    2.3,    2.7,    3.1,    3.6,    3.7,    3.5,    3.6,    3.7,    3.7,    3.8,    4.0,    4.0,    3.9,    3.5,    2.9,    2.7,    2.5,    2.1,    1.7,    1.3,    1.2,    0.9,    0.5,   -0.2,   -0.6,   -1.0,   -1.1,   -1.0,   -0.7,   -0.3,   -0.0,   -0.1
2009/10/31 17:40,  999.0,  999.0,  999.0,  999.0,  999.0,    0.0,    0.2,   -0.6,    0.2,    0.2,    0.2,    0.1,   -0.1,   -0.6,   -0.8,   -1.2,   -0.8,   -0.7,   -1.2,   -1.4,   -1.4,   -2.4,   -3.0,   -3.3,   -2.9,   -1.7,   -1.3,   -2.0,   -2.5,   -2.6,   -2.1,   -1.8,   -1.5,   -2.0,   -3.0,   -4.2,   -6.5,   -1.6,  999.0,  999.0,   -0.4,  999.0,  999.0,  999.0,   -8.4,  999.0,   -3.2,   -1.2,    0.3,   -0.3,    0.7,    1.1,    1.9,    2.5,    3.7,  999.0,  999.0,  999.0,    3.8,    3.3,    2.8,    2.1,    1.8,    2.2,    2.2,    2.3,    2.8,    3.2,    3.7,    4.3,    4.0,    4.7,    4.7,    4.6,    3.9,    3.6,    3.3,    3.1,    2.9,    2.4,    2.1,    2.1,    2.0,    2.0,    1.8,    1.4,    1.2,    1.2,    0.6,    0.0,   -0.2,   -0.9,   -1.1,   -0.8,   -0.4,   -0.1,    0.0,    0.0
2009/10/31 17:50,  999.0,  999.0,  999.0,  999.0,  999.0,  999.0,  999.0,  999.0,  999.0,    6.6,   11.5,  999.0,  999.0,  999.0,  999.0,    1.0,    1.1,    1.4,    1.7,    2.0,    1.9,    1.4,    0.6,    0.1,    0.0,    0.5,    0.6,    0.2,   -1.5,   -2.5,   -2.3,   -0.1,    0.9,  999.0,    3.5,    0.3,    0.9,    1.7,    1.3,    4.6,  999.0,  999.0,  999.0,  999.0,   -0.6,  999.0,   -1.6,   -0.0,    1.2,  999.0,   -1.3,   -1.1,  999.0,  999.0,  999.0,  999.0,  999.0,  999.0,    2.9,    2.4,    1.5,    1.4,    1.1,    1.2,    1.7,    2.4,    3.0,    3.4,    3.9,    4.0,    4.2,    4.3,    4.1,    3.6,    3.4,    2.6,    2.2,    2.2,    1.9,    1.5,    1.2,    1.1,    1.2,    1.3,    1.2,    1.2,    1.1,    1.0,    0.9,    0.4,    0.0,   -0.5,   -0.8,   -0.8,   -0.6,   -0.2,    0.2,    0.4
2009/10/31 18:00,  999.0,    7.4,  999.0,    7.2,  999.0,    9.3,    9.6,   11.3,   13.3,   10.4,   13.2,   10.5,   12.8,  999.0,    7.3,    7.4,    7.3,    3.0,    8.0,  999.0,  999.0,    2.0,    1.8,    0.9,    1.2,    0.4,    0.3,   -1.2,   -1.3,   -1.1,   -1.1,   -1.4,   -3.7,   -3.3,   -4.3,   -3.8,   -3.2,   -2.3,  999.0,   -1.7,  999.0,  999.0,  999.0,  999.0,  999.0,  999.0,  999.0,  999.0,   -0.4,  999.0,   -0.8,   -0.3,    0.8,  999.0,    2.0,    2.9,  999.0,    3.4,    3.1,    2.5,    2.1,    2.2,    2.3,    2.5,    3.0,    3.4,    3.5,    3.4,    3.1,    2.3,    2.2,    2.0,    1.6,    1.1,    0.9,    0.7,    0.7,    0.4,    0.7,    0.8,    0.8,    0.9,    1.1,    1.4,    1.3,    1.2,    1.0,    1.1,    1.3,    1.1,    0.7,    0.3,   -0.3,   -0.5,   -0.4,   -0.1,    0.3,    0.7
2009/10/31 18:10,   -1.8,    0.4,    1.5,    0.4,   -0.3,   -0.1,   -0.2,    0.5,    1.4,    1.4,    1.6,    0.6,   -2.1,   -2.8,   -1.0,   -2.3,   -2.1,   -1.3,   -1.9,   -2.9,   -2.7,   -4.1,   -4.0,   -3.9,   -3.1,   -3.0,   -3.5,   -3.6,   -4.0,   -3.8,   -4.0,   -4.4,   -3.9,   -3.7,   -3.9,   -4.0,   -3.0,   -3.0,   -2.2,   -1.5,   -1.2,  999.0,   -2.0,  999.0,  999.0,  999.0,  999.0,  999.0,   -0.4,   -0.5,    0.3,    1.2,    2.0,    2.4,    2.5,    2.4,    2.4,    2.6,    2.4,    2.3,    2.5,    2.6,    2.4,    2.5,    3.1,    3.3,    3.7,    3.8,    3.8,    3.2,    2.6,    2.0,    1.6,    1.4,    1.3,    1.4,    1.4,    1.4,    1.2,    1.1,    1.2,    1.1,    1.2,    1.4,    1.6,    1.6,    1.3,    1.0,    1.1,    1.2,    0.8,    0.3,   -0.3,   -0.9,   -1.1,   -1.0,   -0.9,   -0.5
2009/10/31 18:20,   -2.5,   -0.9,   -0.4,   -1.1,   -0.5,   -0.3,    0.8,    1.4,    1.7,    0.7,   -0.2,   -0.8,   -1.5,   -2.0,   -1.2,   -1.3,   -1.0,   -1.1,   -1.8,   -2.4,   -2.7,   -2.6,   -3.0,   -2.2,   -2.0,   -2.4,   -2.6,   -2.8,   -3.3,   -3.5,   -4.0,   -3.3,   -3.1,   -1.6,   -1.4,   -0.5,    0.0,    1.1,    1.4,    1.3,    1.2,    2.0,   -0.1,   -1.0,  999.0,  999.0,  999.0,  999.0,   -0.3,    0.7,    2.4,    3.0,    3.1,    2.7,    2.5,    2.5,    2.5,    2.5,    2.5,    2.6,    2.6,    2.5,    2.5,    2.8,    3.5,    3.8,    4.2,    4.6,    4.5,    3.4,    2.4,    1.8,    1.4,    1.4,    1.5,    1.7,    1.7,    1.9,    2.3,    2.5,    2.4,    2.4,    2.4,    2.0,    1.6,    1.3,    1.2,    0.7,    0.5,    0.6,    0.3,    0.0,   -0.4,   -1.1,   -1.4,   -1.4,   -1.3,   -1.0
2009/10/31 18:30,   -1.8,   -0.2,    0.9,    0.1,    0.6,    1.2,    1.8,    2.1,    1.8,    0.1,   -0.3,   -0.5,   -0.6,   -0.7,   -0.7,   -1.0,   -0.8,   -1.1,   -1.6,   -1.7,   -1.8,   -2.1,   -2.3,   -2.2,   -2.3,   -2.7,   -3.0,   -3.1,   -3.5,   -3.8,   -4.0,   -4.3,   -3.8,   -2.7,   -1.8,   -4.2,   -4.1,   -3.3,   -2.7,   -1.4,   -1.2,   -1.1,   -0.9,   -1.0,   -0.9,  999.0,  999.0,  999.0,   -0.1,    1.8,    2.3,    2.3,    2.1,    2.0,    1.7,    1.7,    1.9,    1.9,    1.9,    2.2,    2.4,    2.6,    2.9,    3.2,    3.5,    4.0,    4.1,    3.8,    3.0,    2.5,    2.3,    2.2,    2.1,    1.9,    2.0,    2.3,    2.7,    2.7,    2.8,    2.9,    2.7,    2.7,    2.6,    2.3,    1.7,    1.1,    0.6,    0.1,   -0.1,   -0.0,   -0.3,   -0.7,   -1.1,   -1.6,   -1.7,   -1.6,   -1.4,   -0.9
2009/10/31 18:40,   -2.5,   -0.8,    0.0,   -0.4,   -0.2,    0.8,    1.2,    0.9,   -0.2,   -1.5,   -2.0,   -1.8,   -2.0,   -2.1,   -1.9,   -1.6,   -1.0,   -1.4,   -1.4,   -1.1,   -1.7,   -2.1,   -1.9,   -2.2,   -2.3,   -2.9,   -2.8,   -3.2,   -3.4,   -3.1,   -3.1,   -3.6,   -2.4,   -3.0,   -3.4,   -3.4,   -3.6,   -3.2,   -2.6,   -2.0,   -1.6,   -2.2,   -1.0,   -1.8,  999.0,  999.0,  999.0,   -0.3,    1.7,    2.1,    1.6,    1.5,    1.6,    1.4,    1.3,    1.5,    1.7,    1.8,    2.1,    2.3,    2.8,    3.2,    3.4,    3.7,    4.0,    4.2,    4.3,    3.7,    3.1,    3.3,    3.1,    2.8,    2.6,    2.2,    2.1,    2.5,    2.9,    2.9,    3.0,    3.0,    2.7,    2.6,    2.3,    2.0,    1.6,    1.1,    0.6,    0.1,   -0.1,   -0.1,   -0.3,   -0.5,   -1.0,   -1.4,   -1.3,   -1.2,   -0.9,   -0.3
2009/10/31 18:50,   -2.2,   -0.9,   -0.6,   -1.1,    0.0,    1.3,    0.8,   -0.2,   -1.1,   -2.3,   -2.8,   -3.1,   -3.0,   -2.4,   -2.1,   -1.8,   -1.7,   -1.8,   -1.9,   -2.5,   -3.1,   -3.3,   -3.8,   -4.8,   -5.0,   -5.1,   -5.0,   -4.2,   -4.1,   -4.3,   -3.9,   -3.3,   -2.5,   -3.0,   -2.2,   -1.3,   -1.6,   -1.4,    0.0,   -0.8,   -1.1,   -0.9,  999.0,   -0.3,  999.0,  999.0,  999.0,  999.0,  999.0,    1.6,    1.7,    1.6,    1.6,    1.6,    1.3,    1.4,    1.5,    1.9,    2.3,    2.5,    2.9,    3.2,    3.5,    3.8,    4.1,    4.3,    4.4,    4.1,    4.0,    3.8,    3.6,    3.1,    2.7,    2.4,    2.2,    2.5,    3.1,    3.3,    3.1,    2.7,    2.5,    2.4,    2.4,    2.2,    1.6,    1.0,    0.6,    0.3,   -0.1,   -0.3,   -0.4,   -0.6,   -1.0,   -1.4,   -1.5,   -1.1,   -0.8,   -0.5
2009/10/31 19:00,  999.0,   -1.3,   -0.5,   -0.7,    0.9,    0.8,    0.1,   -0.6,   -2.2,   -3.4,   -3.6,   -3.2,   -3.3,   -3.0,   -2.7,   -2.7,   -2.4,   -2.2,   -2.3,   -2.5,   -3.5,   -4.1,   -4.4,   -4.8,   -5.0,   -4.9,   -4.5,   -3.7,   -3.8,   -3.6,   -4.0,   -4.7,   -3.2,   -2.7,   -1.6,   -1.2,   -1.4,   -1.4,   -1.1,   -1.6,   -1.5,   -1.5,  999.0,  999.0,  999.0,  999.0,  999.0,    2.8,    2.2,    2.0,    2.2,    2.2,    1.7,    1.3,    1.2,    1.4,    1.7,    2.1,    2.4,    2.6,    3.0,    3.3,    3.5,    3.6,    3.9,    4.2,    4.4,    3.9,    3.6,    3.4,    3.2,    3.1,    2.9,    2.4,    2.0,    2.2,    2.4,    2.7,    3.0,    2.7,    2.1,    2.1,    2.1,    2.0,    1.6,    1.0,    0.4,    0.2,   -0.2,   -0.1,   -0.1,   -0.2,   -0.6,   -1.1,   -1.3,   -1.0,   -0.6,   -0.1
2009/10/31 19:10,  999.0,   -1.2,   -1.1,   -0.3,   -0.1,   -0.6,   -1.0,   -1.6,   -3.0,   -4.0,   -3.3,   -2.9,   -2.4,   -2.0,   -1.5,   -1.3,   -0.8,   -0.7,   -1.0,   -0.8,   -1.8,   -2.2,   -2.5,   -3.2,   -3.7,   -4.0,   -4.2,   -4.6,   -4.8,   -4.7,   -4.7,   -4.6,   -4.5,   -3.9,   -3.1,   -2.4,   -2.4,   -3.1,   -2.5,   -2.5,   -3.1,   -3.3,   -2.9,   -1.8,    0.3,  999.0,  999.0,    2.3,    2.3,    2.6,    2.4,    2.0,    1.6,    0.9,    0.7,    1.1,    1.7,    2.1,    2.4,    2.6,    2.9,    3.1,    3.0,    3.1,    3.3,    3.7,    3.8,    3.4,    2.9,    2.9,    2.8,    2.6,    2.4,    2.0,    1.6,    1.5,    1.9,    2.3,    2.3,    2.4,    2.1,    1.6,    1.5,    1.5,    1.3,    1.0,    0.3,   -0.1,   -0.4,   -0.4,   -0.0,   -0.1,   -0.4,   -1.0,   -1.0,   -0.6,  999.0,  999.0
2009/10/31 19:20,  999.0,  999.0,  999.0,  999.0,  999.0,  999.0,  999.0,  999.0,  999.0,   -3.7,   -2.4,  999.0,  999.0,  999.0,   -3.0,   -3.0,   -2.2,   -2.1,   -2.6,   -2.7,   -4.0,   -4.8,   -5.0,   -5.2,   -5.3,   -5.2,   -5.2,   -5.4,   -5.3,   -4.8,   -5.5,   -4.5,   -4.7,   -3.8,   -2.6,   -2.2,   -2.1,   -2.3,   -1.9,  999.0,  999.0,  999.0,  999.0,  999.0,  999.0,  999.0,  999.0,    0.1,    0.7,    0.5,    0.4,    1.2,    1.2,    0.8,    0.6,    0.9,    1.5,    1.8,    2.2,    2.5,    2.5,    2.6,    2.4,    2.7,    2.9,    3.5,    3.7,    3.0,    2.3,    2.1,    2.1,    2.0,    2.1,    2.0,    1.8,    2.0,    2.6,    3.0,    3.3,    3.1,    2.6,    1.9,    1.6,    1.5,    1.5,    1.4,    0.7,    0.1,   -0.1,   -0.1,    0.2,    0.1,  999.0,  999.0,  999.0,  999.0,  999.0,  999.0
2009/10/31 19:30,  999.0,  999.0,  999.0,  999.0,  999.0,  999.0,  999.0,  999.0,  999.0,  999.0,    0.8,  999.0,  999.0,  999.0,   -5.6,   -4.7,   -6.9,   -7.2,   -7.4,   -6.6,   -6.5,   -5.9,   -5.1,   -5.4,   -4.7,   -4.9,  999.0,  999.0,  999.0,  999.0,  999.0,  999.0,  999.0,  999.0,  999.0,  999.0,  999.0,  999.0,  999.0,  999.0,  999.0,  999.0,  999.0,  999.0,  999.0,  999.0,  999.0,  999.0,    1.8,  999.0,    0.4,    0.3,  999.0,  999.0,    0.7,    0.9,    0.8,    1.4,    1.7,    2.0,    2.1,    2.0,    2.0,    2.2,    2.8,    3.3,    3.6,    2.8,    2.0,    1.8,    2.1,    2.4,    2.4,    1.9,    1.6,    2.0,    2.6,    3.1,    3.5,    3.1,  999.0,    1.8,    1.3,    1.4,    1.5,  999.0,  999.0,  999.0,  999.0,  999.0,  999.0,  999.0,  999.0,  999.0,  999.0,  999.0,  999.0,  999.0
2009/10/31 19:40,  999.0,  999.0,  999.0,  999.0,  999.0,  999.0,  999.0,  999.0,  999.0,   -3.2,   -2.6,   -2.6,  999.0,   -3.2,   -3.6,   -4.6,   -5.1,   -4.4,   -4.4,   -4.3,  999.0,   -3.7,  999.0,   -4.1,   -3.8,   -4.1,   -4.3,   -4.4,   -4.6,   -5.3,   -4.6,  999.0,  999.0,  999.0,  999.0,  999.0,  999.0,  999.0,  999.0,  999.0,  999.0,  999.0,  999.0,  999.0,  999.0,  999.0,    2.0,    2.6,    2.1,    2.1,    0.7,    0.0,    0.4,    2.2,    1.9,    2.5,    1.9,    2.4,    2.6,    2.8,    2.8,    2.8,    2.6,    2.5,    2.8,    3.3,    3.7,    3.5,    2.5,    2.1,    2.3,    2.2,    1.9,    1.3,    1.1,    1.4,  999.0,  999.0,  999.0,  999.0,  999.0,    2.0,  999.0,    1.4,  999.0,  999.0,  999.0,  999.0,  999.0,  999.0,  999.0,  999.0,  999.0,  999.0,  999.0,  999.0,  999.0,  999.0
2009/10/31 19:50,  999.0,  999.0,  999.0,  999.0,  999.0,  999.0,  999.0,  999.0,   -2.6,  999.0,  999.0,  999.0,   -2.3,   -3.6,   -3.6,   -4.4,   -4.0,   -3.9,   -4.0,   -4.2,   -4.2,   -3.6,   -3.8,   -4.1,   -3.8,   -4.2,   -5.0,  999.0,   -3.7,  999.0,  999.0,  999.0,  999.0,  999.0,  999.0,  999.0,  999.0,  999.0,  999.0,  999.0,  999.0,  999.0,  999.0,  999.0,  999.0,  999.0,    1.8,    2.2,    1.9,    2.7,    2.2,   -0.0,  999.0,  999.0,    2.6,    2.3,    2.2,    2.2,    2.1,    2.3,    2.2,    2.3,    2.2,    2.2,    2.5,    2.8,    3.5,    3.5,    2.2,    1.6,    1.4,    1.7,  999.0,    1.4,  999.0,  999.0,  999.0,  999.0,  999.0,  999.0,  999.0,  999.0,  999.0,  999.0,  999.0,  999.0,  999.0,  999.0,  999.0,  999.0,  999.0,  999.0,  999.0,  999.0,  999.0,  999.0,  999.0,  999.0
2009/10/31 20:00,  999.0,  999.0,   -0.2,  999.0,  999.0,   -2.5,   -2.7,  999.0,  999.0,  999.0,  999.0,  999.0,  999.0,   -3.6,  999.0,   -4.5,   -4.4,   -4.1,   -4.9,   -4.7,   -4.6,   -3.9,   -3.6,   -4.1,   -4.1,  999.0,  999.0,  999.0,  999.0,  999.0,  999.0,  999.0,  999.0,  999.0,  999.0,  999.0,   -1.8,   -2.2,   -1.4,   -0.8,  999.0,  999.0,  999.0,  999.0,  999.0,    0.5,    0.9,    1.6,    1.5,    2.1,  999.0,    0.7,  999.0,  999.0,  999.0,  999.0,  999.0,  999.0,  999.0,  999.0,    2.2,    2.0,    1.8,  999.0,  999.0,  999.0,  999.0,  999.0,  999.0,  999.0,    1.5,  999.0,  999.0,  999.0,  999.0,  999.0,  999.0,  999.0,  999.0,  999.0,  999.0,  999.0,  999.0,  999.0,  999.0,  999.0,  999.0,  999.0,  999.0,  999.0,  999.0,  999.0,  999.0,  999.0,  999.0,  999.0,  999.0,  999.0
2009/10/31 20:10,  999.0,  999.0,  999.0,  999.0,  999.0,  999.0,  999.0,   -2.4,  999.0,  999.0,  999.0,  999.0,  999.0,  999.0,  999.0,  999.0,   -4.8,   -4.9,   -5.1,  999.0,  999.0,   -4.3,   -3.9,   -4.4,   -4.7,   -4.9,  999.0,  999.0,  999.0,  999.0,  999.0,  999.0,  999.0,  999.0,   -2.7,  999.0,  999.0,  999.0,   -1.7,   -1.0,   -0.7,  999.0,  999.0,  999.0,  999.0,    0.4,    0.9,    1.7,    1.9,    2.5,    2.1,  999.0,  999.0,  999.0,  999.0,    1.7,    1.8,  999.0,  999.0,  999.0,  999.0,  999.0,  999.0,  999.0,  999.0,  999.0,  999.0,  999.0,  999.0,  999.0,  999.0,  999.0,  999.0,  999.0,  999.0,  999.0,  999.0,  999.0,  999.0,  999.0,  999.0,  999.0,  999.0,  999.0,  999.0,  999.0,  999.0,  999.0,  999.0,  999.0,  999.0,  999.0,  999.0,  999.0,  999.0,  999.0,  999.0,  999.0
2009/10/31 20:20,  999.0,  999.0,  999.0,    0.2,   -1.1,   -1.1,   -1.1,  999.0,  999.0,  999.0,  999.0,   -3.0,  999.0,  999.0,  999.0,  999.0,  999.0,  999.0,  999.0,  999.0,  999.0,   -4.9,   -4.8,   -4.7,   -4.7,   -5.1,  999.0,  999.0,  999.0,  999.0,  999.0,  999.0,  999.0,  999.0,  999.0,  999.0,  999.0,  999.0,  999.0,  999.0,   -1.0,  999.0,  999.0,  999.0,  999.0,  999.0,    0.9,    1.7,    2.0,    2.6,    2.4,    2.2,    2.4,    3.1,    3.7,  999.0,  999.0,  999.0,  999.0,  999.0,  999.0,  999.0,  999.0,  999.0,  999.0,  999.0,  999.0,  999.0,  999.0,  999.0,  999.0,  999.0,  999.0,  999.0,  999.0,  999.0,  999.0,  999.0,  999.0,  999.0,  999.0,  999.0,  999.0,  999.0,  999.0,  999.0,  999.0,  999.0,  999.0,  999.0,  999.0,  999.0,  999.0,  999.0,  999.0,  999.0,  999.0,  999.0
2009/10/31 20:30,  999.0,  999.0,  999.0,   -0.6,  999.0,  999.0,  999.0,   -1.1,  999.0,  999.0,   -1.1,  999.0,  999.0,  999.0,  999.0,  999.0,  999.0,  999.0,  999.0,  999.0,  999.0,   -7.4,  999.0,   -5.0,   -4.8,   -5.0,   -5.9,  999.0,  999.0,  999.0,  999.0,   -4.5,   -4.1,   -3.8,  999.0,  999.0,  999.0,  999.0,   -2.6,  999.0,  999.0,  999.0,  999.0,  999.0,  999.0,    0.3,    1.2,    1.9,    2.4,    2.8,    2.8,    2.6,    2.2,    2.1,    2.8,    3.3,    3.8,    3.7,  999.0,  999.0,  999.0,  999.0,  999.0,  999.0,  999.0,  999.0,  999.0,  999.0,  999.0,  999.0,  999.0,  999.0,  999.0,  999.0,  999.0,  999.0,  999.0,  999.0,  999.0,  999.0,  999.0,  999.0,  999.0,  999.0,  999.0,  999.0,  999.0,  999.0,  999.0,  999.0,  999.0,  999.0,  999.0,  999.0,  999.0,  999.0,  999.0,  999.0
2009/10/31 20:40,  999.0,  999.0,    0.6,  999.0,  999.0,  999.0,  999.0,  999.0,   -1.1,   -0.8,   -0.2,   -0.8,  999.0,  999.0,  999.0,  999.0,  999.0,   -4.9,   -5.5,   -5.8,  999.0,  999.0,  999.0,   -4.7,   -4.7,  999.0,   -5.7,  999.0,  999.0,  999.0,  999.0,  999.0,  999.0,  999.0,  999.0,  999.0,  999.0,  999.0,  999.0,  999.0,  999.0,  999.0,  999.0,  999.0,  999.0,    0.1,    0.9,  999.0,    2.0,    2.3,    2.7,    2.5,    2.5,    2.4,    2.7,    3.6,  999.0,  999.0,    3.8,  999.0,  999.0,  999.0,  999.0,  999.0,  999.0,  999.0,  999.0,  999.0,  999.0,  999.0,  999.0,  999.0,  999.0,  999.0,  999.0,  999.0,  999.0,  999.0,  999.0,  999.0,  999.0,  999.0,  999.0,  999.0,  999.0,  999.0,  999.0,  999.0,  999.0,  999.0,  999.0,  999.0,  999.0,  999.0,  999.0,  999.0,  999.0,  999.0
2009/10/31 20:50,  999.0,  999.0,  999.0,  999.0,  999.0,    0.8,    0.5,   -0.6,   -0.5,   -1.5,  999.0,   -1.9,  999.0,  999.0,  999.0,  999.0,  999.0,  999.0,   -4.8,   -4.9,  999.0,  999.0,  999.0,   -5.2,  999.0,  999.0,  999.0,  999.0,  999.0,  999.0,  999.0,  999.0,  999.0,  999.0,  999.0,  999.0,  999.0,  999.0,  999.0,  999.0,  999.0,  999.0,  999.0,  999.0,  999.0,    0.1,    0.8,    1.9,    2.1,    2.7,    3.0,    2.8,    3.1,    2.8,    3.2,  999.0,  999.0,    3.7,    3.2,  999.0,  999.0,  999.0,  999.0,  999.0,  999.0,  999.0,  999.0,  999.0,  999.0,  999.0,  999.0,  999.0,  999.0,  999.0,  999.0,  999.0,  999.0,  999.0,  999.0,  999.0,  999.0,  999.0,  999.0,  999.0,  999.0,  999.0,  999.0,  999.0,  999.0,  999.0,  999.0,  999.0,  999.0,  999.0,  999.0,  999.0,  999.0,  999.0
2009/10/31 21:00,  999.0,  999.0,  999.0,  999.0,    1.2,    0.8,    1.0,    0.3,   -0.5,    1.4,   -0.9,   -2.4,   -4.4,  999.0,   -4.1,  999.0,  999.0,  999.0,   -4.3,   -4.6,   -4.3,  999.0,  999.0,   -4.5,   -5.2,  999.0,   -5.0,  999.0,  999.0,  999.0,  999.0,  999.0,  999.0,  999.0,  999.0,  999.0,  999.0,  999.0,  999.0,  999.0,  999.0,  999.0,  999.0,  999.0,   -0.9,   -0.3,    0.5,    1.5,  999.0,  999.0,    2.6,    2.8,    3.1,    3.2,    3.7,  999.0,    3.9,    4.0,  999.0,  999.0,  999.0,  999.0,  999.0,  999.0,  999.0,  999.0,  999.0,  999.0,  999.0,  999.0,  999.0,  999.0,  999.0,  999.0,  999.0,  999.0,  999.0,  999.0,  999.0,  999.0,  999.0,  999.0,  999.0,  999.0,  999.0,  999.0,  999.0,  999.0,  999.0,  999.0,  999.0,  999.0,  999.0,  999.0,  999.0,  999.0,  999.0,  999.0
2009/10/31 21:10,  999.0,  999.0,   -0.1,   -0.4,    0.3,    0.5,    0.6,    0.3,   -0.5,   -1.2,   -2.1,  999.0,   -3.1,  999.0,  999.0,  999.0,   -4.1,  999.0,   -3.4,   -3.9,   -4.2,   -4.7,   -4.1,   -4.2,   -3.5,   -4.6,   -5.1,  999.0,  999.0,  999.0,  999.0,  999.0,  999.0,   -3.0,  999.0,   -2.5,  999.0,  999.0,  999.0,  999.0,  999.0,  999.0,  999.0,    0.2,   -0.1,   -0.1,    0.3,    0.9,  999.0,    2.2,    2.6,    2.8,    3.0,    3.1,    3.1,  999.0,    3.9,    3.8,    2.7,  999.0,  999.0,  999.0,  999.0,  999.0,  999.0,  999.0,  999.0,  999.0,  999.0,  999.0,  999.0,  999.0,  999.0,  999.0,  999.0,  999.0,  999.0,  999.0,  999.0,  999.0,  999.0,  999.0,  999.0,  999.0,  999.0,  999.0,  999.0,  999.0,  999.0,  999.0,  999.0,  999.0,  999.0,  999.0,  999.0,  999.0,  999.0,  999.0
2009/10/31 21:20,   -0.4,   -0.1,    0.3,    0.1,  999.0,    0.3,    0.4,   -0.3,   -0.6,   -1.5,   -2.2,   -2.8,  999.0,   -3.1,  999.0,  999.0,  999.0,  999.0,   -3.5,   -2.8,  999.0,  999.0,  999.0,   -4.2,   -4.1,   -4.3,   -5.1,  999.0,  999.0,  999.0,  999.0,  999.0,  999.0,  999.0,  999.0,  999.0,  999.0,  999.0,  999.0,  999.0,    0.6,    0.2,    0.5,    0.9,    0.8,    0.9,    1.7,    2.7,    3.1,    2.9,    3.0,    3.2,    3.0,    2.9,    3.3,    3.5,    3.5,    3.5,    3.2,  999.0,  999.0,  999.0,  999.0,  999.0,  999.0,  999.0,  999.0,  999.0,  999.0,  999.0,  999.0,  999.0,  999.0,  999.0,  999.0,  999.0,  999.0,  999.0,  999.0,  999.0,  999.0,  999.0,  999.0,  999.0,  999.0,  999.0,  999.0,  999.0,  999.0,  999.0,  999.0,  999.0,  999.0,  999.0,    1.1,  999.0,  999.0,  999.0
2009/10/31 21:30,   -0.6,    0.3,    0.4,  999.0,  999.0,  999.0,    0.6,  999.0,  999.0,   -1.1,  999.0,  999.0,  999.0,   -5.0,  999.0,  999.0,  999.0,  999.0,  999.0,   -2.7,   -2.8,  999.0,  999.0,  999.0,  999.0,  999.0,  999.0,  999.0,  999.0,  999.0,  999.0,  999.0,  999.0,  999.0,  999.0,  999.0,  999.0,    1.7,  999.0,   -0.7,    0.9,    0.8,    0.7,    0.8,    0.6,    1.5,    2.5,    3.2,    2.9,    3.0,  999.0,    3.0,    2.9,  999.0,    2.8,    3.5,    3.4,    3.2,  999.0,  999.0,  999.0,  999.0,  999.0,  999.0,  999.0,  999.0,  999.0,  999.0,  999.0,  999.0,  999.0,  999.0,  999.0,  999.0,  999.0,  999.0,  999.0,  999.0,  999.0,  999.0,  999.0,  999.0,  999.0,  999.0,  999.0,  999.0,  999.0,    0.0,   -0.2,   -0.3,   -0.6,   -0.6,   -0.4,   -0.3,  999.0,   -0.2,   -0.3,  999.0
2009/10/31 21:40,  999.0,  999.0,  999.0,    0.5,  999.0,    1.9,    1.1,    1.0,  999.0,  999.0,  999.0,  999.0,  999.0,  999.0,  999.0,  999.0,  999.0,  999.0,   -3.5,   -2.8,   -2.4,   -2.9,   -3.6,  999.0,   -3.8,   -3.9,  999.0,  999.0,  999.0,  999.0,  999.0,  999.0,  999.0,  999.0,  999.0,  999.0,  999.0,  999.0,  999.0,  999.0,  999.0,  999.0,  999.0,    1.4,  999.0,    1.8,    2.4,    3.1,    3.0,  999.0,  999.0,  999.0,    2.5,    2.9,  999.0,    3.0,    2.7,    2.8,    2.1,  999.0,  999.0,  999.0,  999.0,  999.0,  999.0,  999.0,  999.0,  999.0,  999.0,  999.0,  999.0,  999.0,  999.0,  999.0,  999.0,  999.0,  999.0,  999.0,  999.0,  999.0,  999.0,  999.0,  999.0,  999.0,    0.3,   -0.2,   -0.1,   -0.1,   -0.2,   -0.4,   -0.7,   -0.6,   -0.3,   -0.1,    0.0,  999.0,  999.0,  999.0
2009/10/31 21:50,  999.0,    1.1,    0.5,  999.0,  999.0,  999.0,  999.0,  999.0,  999.0,  999.0,  999.0,  999.0,  999.0,  999.0,  999.0,  999.0,  999.0,  999.0,   -4.0,   -3.1,   -2.9,   -3.3,   -3.4,  999.0,   -3.8,   -4.2,   -4.1,  999.0,  999.0,  999.0,  999.0,   -4.2,  999.0,  999.0,  999.0,  999.0,  999.0,  999.0,  999.0,  999.0,   -0.3,  999.0,  999.0,  999.0,  999.0,    2.0,    2.2,    2.9,    2.4,    2.1,  999.0,    2.2,    2.7,    2.9,    2.7,    3.0,    3.1,    3.2,  999.0,  999.0,  999.0,  999.0,  999.0,  999.0,  999.0,  999.0,  999.0,  999.0,  999.0,  999.0,  999.0,  999.0,  999.0,  999.0,  999.0,  999.0,  999.0,  999.0,  999.0,  999.0,    4.0,    2.8,    1.8,    1.1,    0.6,   -0.1,   -0.3,   -0.4,   -0.5,   -0.8,   -1.0,  999.0,   -0.5,  999.0,  999.0,  999.0,  999.0,  999.0
2009/10/31 22:00,  999.0,    1.1,    0.6,    0.6,  999.0,  999.0,  999.0,    1.9,    1.5,    0.4,   -1.6,  999.0,  999.0,   -2.8,   -3.3,  999.0,  999.0,  999.0,  999.0,   -2.9,   -3.0,   -3.3,   -3.0,   -3.3,   -3.7,   -4.0,   -3.6,  999.0,  999.0,   -3.1,  999.0,   -4.4,   -3.4,   -1.2,   -0.3,  999.0,  999.0,  999.0,  999.0,  999.0,   -0.7,   -0.4,  999.0,  999.0,  999.0,    1.4,    1.6,    2.0,    1.7,    1.9,  999.0,    2.1,    2.7,    3.1,    2.8,    2.7,    3.1,  999.0,  999.0,  999.0,  999.0,  999.0,  999.0,  999.0,  999.0,  999.0,  999.0,  999.0,  999.0,  999.0,  999.0,  999.0,  999.0,  999.0,  999.0,  999.0,    2.7,    3.3,    3.5,    3.2,    3.4,    3.0,    2.1,    1.3,    0.5,   -0.4,   -1.0,   -0.5,   -0.8,   -0.9,   -1.3,  999.0,  999.0,  999.0,  999.0,  999.0,  999.0,  999.0
2009/10/31 22:10,  999.0,    0.5,    0.3,    0.4,    1.5,  999.0,  999.0,    1.9,    1.6,    0.0,   -1.7,  999.0,   -2.3,   -2.9,   -2.7,   -3.2,  999.0,   -3.2,  999.0,   -3.0,   -2.9,   -3.2,   -2.6,   -2.7,   -3.0,   -3.6,   -3.1,   -2.7,  999.0,   -3.4,  999.0,  999.0,  999.0,  999.0,  999.0,  999.0,  999.0,  999.0,  999.0,  999.0,  999.0,  999.0,  999.0,  999.0,  999.0,  999.0,  999.0,    1.8,    1.7,    2.1,    2.9,  999.0,  999.0,    2.5,    2.9,    2.9,    3.1,  999.0,  999.0,  999.0,  999.0,  999.0,  999.0,  999.0,  999.0,  999.0,  999.0,  999.0,  999.0,  999.0,  999.0,  999.0,  999.0,  999.0,  999.0,  999.0,    2.5,    3.1,    3.0,    3.0,    2.7,    2.8,    2.7,    2.1,    1.2,    0.2,   -0.5,   -0.9,   -0.7,   -0.8,   -1.1,  999.0,  999.0,  999.0,  999.0,  999.0,  999.0,  999.0
2009/10/31 22:20,  999.0,  999.0,  999.0,  999.0,    1.5,    2.0,  999.0,    1.1,  999.0,   -1.5,   -2.9,  999.0,   -2.3,  999.0,  999.0,  999.0,  999.0,   -3.4,  999.0,  999.0,  999.0,   -3.5,   -2.6,   -2.6,   -3.2,   -3.9,   -3.4,   -2.8,   -2.6,   -4.3,  999.0,  999.0,  999.0,  999.0,  999.0,  999.0,  999.0,  999.0,  999.0,  999.0,  999.0,  999.0,  999.0,  999.0,  999.0,  999.0,  999.0,  999.0,  999.0,    1.7,    2.4,  999.0,  999.0,  999.0,  999.0,    3.2,  999.0,  999.0,  999.0,  999.0,  999.0,  999.0,  999.0,  999.0,  999.0,  999.0,  999.0,  999.0,  999.0,    1.3,    2.5,    2.2,    2.1,    2.1,    2.4,    2.9,    2.6,    2.7,    2.8,    3.1,    2.8,    2.7,    2.9,    2.2,    1.1,   -0.1,   -0.3,   -0.7,   -0.9,   -1.0,   -1.3,  999.0,   -0.7,  999.0,  999.0,  999.0,  999.0,  999.0
2009/10/31 22:30,  999.0,    0.3,  999.0,    1.1,    1.0,    2.7,  999.0,    1.7,  999.0,   -0.4,   -2.6,  999.0,   -3.1,  999.0,  999.0,  999.0,  999.0,   -3.4,  999.0,   -3.9,  999.0,   -2.6,   -2.0,   -2.3,   -3.2,  999.0,   -3.2,  999.0,   -3.1,  999.0,  999.0,  999.0,  999.0,  999.0,  999.0,  999.0,  999.0,  999.0,  999.0,  999.0,  999.0,  999.0,  999.0,  999.0,  999.0,   -3.4,   -2.8,   -2.8,   -3.5,   -3.8,   -3.7,   -4.3,  999.0,  999.0,  999.0,  999.0,  999.0,  999.0,  999.0,  999.0,  999.0,    1.0,    1.1,    1.1,    1.4,    1.9,    1.8,    1.8,    1.8,    2.1,    2.3,    2.5,    2.6,    2.3,    2.3,    2.6,    2.5,    2.6,    3.1,    3.3,    3.2,    3.0,    2.8,    2.1,    0.6,    0.2,   -0.0,   -0.5,   -0.8,   -1.0,   -0.9,  999.0,   -0.6,  999.0,  999.0,  999.0,  999.0,  999.0
2009/10/31 22:40,    0.2,    0.2,  999.0,  999.0,  999.0,    2.2,  999.0,    2.8,    1.4,   -0.4,   -1.7,  999.0,   -3.3,  999.0,  999.0,   -5.3,  999.0,   -2.5,   -3.0,   -3.2,  999.0,  999.0,   -1.3,   -2.0,   -2.9,  999.0,  999.0,  999.0,  999.0,  999.0,  999.0,  999.0,  999.0,  999.0,  999.0,  999.0,  999.0,  999.0,  999.0,  999.0,  999.0,  999.0,   -0.3,  999.0,  999.0,    1.4,    1.0,    0.9,    1.0,    1.0,    1.0,    0.8,    0.9,    1.8,    2.7,    2.7,    1.7,    1.3,    1.3,    1.0,    1.0,    1.3,    1.5,    1.7,    2.1,    2.4,    2.3,    2.1,    2.3,    2.7,    3.0,    2.8,    2.3,    2.2,    2.4,    2.4,    2.5,    2.7,    3.1,    3.2,    3.3,    3.2,    2.6,    1.5,    0.7,    0.4,    0.4,    0.1,   -0.4,   -0.5,  999.0,  999.0,  999.0,  999.0,    0.2,    0.1,  999.0,    0.1
2009/10/31 22:50,   -0.8,    0.5,  999.0,    0.5,  999.0,  999.0,  999.0,  999.0,  999.0,  999.0,   -1.8,   -8.0,   -8.7,  999.0,  999.0,    0.1,  999.0,    2.7,    1.7,   -0.4,  999.0,  999.0,  999.0,  999.0,  999.0,  999.0,  999.0,  999.0,  999.0,  999.0,  999.0,  999.0,  999.0,  999.0,  999.0,   -2.5,   -1.4,  999.0,   -0.8,   -0.6,   -0.5,   -0.5,    0.6,    1.6,  999.0,    2.0,    1.7,    1.5,    1.5,    1.5,    1.5,    1.3,    1.1,    1.8,    2.8,    2.4,    1.6,    1.7,    1.8,    1.7,    1.8,    1.9,    1.9,    2.2,    2.4,    2.7,    2.7,    2.3,    2.3,    2.4,    2.5,    2.6,    2.4,    2.6,    2.7,    2.7,    2.7,    2.9,    3.0,    2.9,    3.1,    3.0,    2.0,    1.2,    0.6,    0.4,    0.7,    0.6,   -0.4,  999.0,   -0.7,  999.0,   -0.7,   -0.3,    0.1,    0.3,    0.4,    0.3
2009/10/31 23:00,  999.0,  999.0,   -0.4,   -0.6,  999.0,  999.0,  999.0,  999.0,   -2.1,   -1.7,   -1.2,   -3.0,  999.0,  999.0,   -3.1,  999.0,   -2.9,   -3.5,   -4.2,   -4.3,   -4.1,   -3.6,   -3.1,  999.0,  999.0,  999.0,  999.0,  999.0,  999.0,   -4.7,   -5.4,   -5.1,   -4.2,   -2.3,   -1.5,   -1.2,   -0.8,    0.1,    0.0,   -0.0,   -0.5,   -0.2,    1.0,    1.6,    1.8,    1.8,    1.6,    1.1,    1.3,    1.4,    1.5,    1.4,    1.1,    1.6,    2.1,    1.5,    1.3,    1.8,    2.2,    2.3,    2.3,    2.2,    2.2,    2.2,    2.2,    2.2,    2.1,    1.8,    1.6,    1.8,    2.0,    2.2,    2.0,    1.9,    2.3,    2.4,    2.5,    2.5,    2.5,    2.5,    2.5,    2.7,    1.9,    1.0,    0.4,    0.1,    0.2,    0.3,   -0.4,   -0.9,   -1.0,   -1.0,   -1.0,   -0.4,   -0.0,    0.1,    0.3,    0.4
2009/10/31 23:10,  999.0,  999.0,   -0.7,   -0.6,  999.0,  999.0,  999.0,  999.0,  999.0,  999.0,   -1.7,   -4.1,   -4.3,   -5.5,   -4.6,   -4.1,   -4.1,   -4.3,   -4.5,  999.0,  999.0,  999.0,  999.0,  999.0,  999.0,  999.0,  999.0,  999.0,  999.0,  999.0,  999.0,  999.0,  999.0,  999.0,  999.0,    1.2,    1.8,    1.6,    1.2,    1.3,    1.0,    2.2,    2.2,    1.9,    1.6,    1.4,    1.7,    2.0,    2.5,    2.6,    2.4,    1.8,    1.6,    1.5,    1.7,    1.9,    2.8,  999.0,    2.4,    2.5,    2.3,    2.0,    1.3,    1.1,    1.2,    1.3,    1.2,    0.8,    1.0,    1.1,    1.4,    1.7,    1.6,    1.9,    2.3,    2.3,    2.2,    1.8,    1.7,    1.8,    2.1,    1.9,    1.1,    0.7,    0.9,    0.7,    0.3,    0.1,    0.0,   -0.3,   -0.7,   -0.8,   -0.9,  999.0,   -0.3,   -0.3,  999.0,    0.3
2009/10/31 23:20,  999.0,  999.0,   -0.3,  999.0,    1.3,    2.4,    2.7,    2.6,    1.7,    1.2,  999.0,   -1.5,  999.0,  999.0,  999.0,  999.0,  999.0,   -2.5,  999.0,  999.0,  999.0,    0.5,    0.7,  999.0,   -3.6,  999.0,  999.0,    3.5,    2.9,  999.0,  999.0,  999.0,  999.0,    0.9,    1.2,    1.9,    2.1,    2.0,    2.1,    2.4,    3.0,    3.1,    3.4,    2.7,    2.4,    1.3,  999.0,    2.3,    2.4,    2.5,    2.1,    1.3,    0.9,    1.0,    1.3,    1.9,    2.2,    2.5,    2.2,    2.0,    2.0,    1.8,    1.2,    0.7,    0.6,    0.6,    0.6,    0.6,    0.7,    0.9,    1.2,    1.5,    1.5,    1.8,    2.0,    2.0,    2.0,    1.8,    1.8,    1.9,    1.9,    1.5,    1.1,    1.0,    0.9,    1.0,    0.7,    0.4,    0.3,    0.3,    0.2,   -0.0,   -0.1,   -0.2,    0.0,    0.0,    0.0,    0.4
2009/10/31 23:30,  999.0,  999.0,    0.8,   -0.5,    1.5,    2.3,    2.8,    2.4,    2.2,    1.4,    0.6,   -1.2,  999.0,  999.0,  999.0,    2.1,    1.3,   -0.6,  999.0,  999.0,    2.3,    3.4,  999.0,  999.0,  999.0,   -2.2,  999.0,  999.0,   -3.7,   -1.8,   -2.8,   -3.7,   -3.2,    0.7,    0.9,    0.8,    0.8,    0.9,    1.0,    1.4,    1.0,    0.8,    0.6,   -1.0,  999.0,    0.3,  999.0,    2.2,    3.0,    3.4,    3.3,    2.1,    1.3,    1.6,    2.4,    3.1,    2.7,    1.4,    0.9,    1.2,    1.4,    1.1,    0.6,    0.3,    0.1,    0.1,    0.1,    0.2,    0.4,    0.6,    1.0,    1.3,    1.4,    1.6,    1.7,    1.7,    1.6,    1.6,    1.6,    1.7,    1.6,    1.2,    1.0,    1.2,    1.3,    1.6,    1.4,    1.1,    1.1,    0.9,    0.7,    0.5,    0.3,    0.2,    0.5,    0.6,    0.5,    0.6
2009/10/31 23:40,  999.0,  999.0,  999.0,  999.0,   -2.1,   -0.4,   -0.3,   -1.7,   -0.9,   -4.0,   -1.3,   -1.2,   -3.4,  999.0,  999.0,  999.0,   -4.4,  999.0,   -7.5,  999.0,  999.0,  999.0,  999.0,  999.0,  999.0,  999.0,  999.0,  999.0,  999.0,  999.0,  999.0,  999.0,  999.0,  999.0,  999.0,  999.0,  999.0,  999.0,   -2.4,   -1.4,  999.0,    1.2,    1.3,    1.3,    1.9,    1.5,    2.3,  999.0,  999.0,    4.2,    3.8,  999.0,    2.0,    1.8,    1.8,    1.7,    0.9,    0.9,    1.6,  999.0,    2.0,    1.3,    0.7,    0.0,   -0.4,   -0.6,   -0.3,    0.0,    0.4,    0.6,    0.8,    1.1,    1.1,    1.3,    1.6,    1.6,    1.7,    1.7,    1.8,    1.8,    1.4,    0.9,    0.9,    1.1,    1.4,    1.8,    1.9,    2.1,    1.5,    1.4,    1.2,    1.1,    0.9,    0.5,    0.2,    0.2,    0.3,    0.2
2009/10/31 23:50,  999.0,  999.0,  999.0,  999.0,  999.0,    2.1,    2.1,    2.1,  999.0,  999.0,  999.0,  999.0,  999.0,  999.0,  999.0,   -3.5,   -3.2,   -3.3,   -3.0,  999.0,  999.0,   -1.8,   -2.2,   -3.3,  999.0,  999.0,  999.0,  999.0,  999.0,  999.0,  999.0,  999.0,  999.0,  999.0,  999.0,  999.0,  999.0,  999.0,  999.0,    2.5,    2.4,    2.0,    2.1,    2.8,    3.6,    4.1,  999.0,    3.0,  999.0,    2.8,    2.9,    3.2,    3.4,    2.8,    2.5,    2.7,    2.5,    2.0,    1.9,    2.2,    2.3,    1.9,    1.4,    0.4,   -0.9,   -1.1,   -0.9,   -0.4,    0.1,    0.6,    1.0,    0.9,    1.1,    1.3,    1.4,    1.5,    1.7,    1.6,    1.7,    1.7,    1.4,    0.9,    1.2,    1.4,    1.7,    2.0,    2.3,    2.5,    2.0,    1.6,    1.4,    1.2,    1.0,    0.9,    0.9,    0.7,    0.2,    0.1
